Time,TemperatureF,DewpointF,PressureIn,WindDirection,WindDirectionDegrees,WindSpeedMPH,WindSpeedGustMPH,Humidity,HourlyPrecipIn,Conditions,Clouds,dailyrainin,SoftwareType,DateUTC
2013-08-28 00:00:00,76.5,73.3,28.67,NNW,338,2.3,2.3,90,0.00,CLR,,0.00,WeatherDisplay:10.37,2013-08-28 05:00:00,
2013-08-28 00:01:00,76.5,73.3,28.67,NNW,338,1.4,2.2,90,0.00,CLR,,0.00,WeatherDisplay:10.37,2013-08-28 05:01:00,
2013-08-28 00:02:00,76.6,73.5,28.67,NNW,338,2.3,2.3,90,0.00,CLR,,0.00,WeatherDisplay:10.37,2013-08-28 05:02:00,
2013-08-28 00:03:00,76.6,73.5,28.67,NNW,338,1.4,1.4,90,0.00,CLR,,0.00,WeatherDisplay:10.37,2013-08-28 05:03:00,
2013-08-28 00:04:00,76.6,73.5,28.67,NNW,338,1.6,1.6,90,0.00,CLR,,0.00,WeatherDisplay:10.37,2013-08-28 05:04:00,
2013-08-28 00:05:00,76.6,73.5,28.67,NNW,338,1.6,1.6,90,0.00,CLR,,0.00,WeatherDisplay:10.37,2013-08-28 05:05:00,
2013-08-28 00:06:00,76.6,73.5,28.67,NNW,338,2.3,2.3,90,0.00,CLR,,0.00,WeatherDisplay:10.37,2013-08-28 05:06:00,
2013-08-28 00:07:00,76.8,73.7,28.67,NNW,338,1.2,1.4,90,0.00,CLR,,0.00,WeatherDisplay:10.37,2013-08-28 05:07:00,
2013-08-28 00:08:00,76.8,73.7,28.67,NNW,338,1.2,0.0,90,0.00,CLR,,0.00,WeatherDisplay:10.37,2013-08-28 05:08:00,
2013-08-28 00:09:00,76.8,73.7,28.67,NNW,338,1.2,0.0,90,0.00,CLR,,0.00,WeatherDisplay:10.37,2013-08-28 05:09:00,
2013-08-28 00:10:00,76.8,73.7,28.67,NNW,338,1.2,1.4,90,0.00,CLR,,0.00,WeatherDisplay:10.37,2013-08-28 05:10:00,
2013-08-28 00:11:00,76.8,73.7,28.67,NNW,338,1.6,1.6,90,0.00,CLR,,0.00,WeatherDisplay:10.37,2013-08-28 05:11:00,
2013-08-28 00:13:00,76.8,73.3,28.67,NNW,338,2.3,0.0,89,0.00,CLR,,0.00,WeatherDisplay:10.37,2013-08-28 05:13:00,
2013-08-28 00:14:00,76.8,73.3,28.67,NNW,338,1.6,1.6,89,0.00,CLR,,0.00,WeatherDisplay:10.37,2013-08-28 05:14:00,
2013-08-28 00:16:00,76.8,73.3,28.67,NNW,338,2.3,2.3,89,0.00,CLR,,0.00,WeatherDisplay:10.37,2013-08-28 05:16:00,
2013-08-28 00:18:00,76.8,73.3,28.67,NNW,338,2.3,2.3,89,0.00,CLR,,0.00,WeatherDisplay:10.37,2013-08-28 05:18:00,
2013-08-28 00:19:00,76.8,73.3,28.67,NW,315,2.3,2.3,89,0.00,CLR,,0.00,WeatherDisplay:10.37,2013-08-28 05:19:00,
2013-08-28 00:20:00,76.8,73.3,28.67,NW,315,2.3,2.3,89,0.00,CLR,,0.00,WeatherDisplay:10.37,2013-08-28 05:20:00,
2013-08-28 00:21:00,76.8,73.3,28.67,NW,315,2.3,2.3,89,0.00,CLR,,0.00,WeatherDisplay:10.37,2013-08-28 05:21:00,
2013-08-28 00:22:00,76.8,73.3,28.67,NW,315,2.3,2.3,89,0.00,CLR,,0.00,WeatherDisplay:10.37,2013-08-28 05:22:00,
2013-08-28 00:23:00,76.8,73.3,28.67,NW,315,2.3,2.3,89,0.00,CLR,,0.00,WeatherDisplay:10.37,2013-08-28 05:23:00,
2013-08-28 00:24:00,76.8,73.3,28.67,NW,315,2.3,2.3,89,0.00,CLR,,0.00,WeatherDisplay:10.37,2013-08-28 05:24:00,
2013-08-28 00:25:00,76.8,73.3,28.67,NW,315,1.6,1.6,89,0.00,CLR,,0.00,WeatherDisplay:10.37,2013-08-28 05:25:00,
2013-08-28 00:26:00,76.8,73.3,28.67,NW,315,1.4,1.4,89,0.00,CLR,,0.00,WeatherDisplay:10.37,2013-08-28 05:26:00,
2013-08-28 00:28:00,76.8,73.7,28.67,NW,315,2.3,2.3,90,0.00,CLR,,0.00,WeatherDisplay:10.37,2013-08-28 05:28:00,
2013-08-28 00:29:00,76.8,73.3,28.67,NW,315,2.3,2.3,89,0.00,CLR,,0.00,WeatherDisplay:10.37,2013-08-28 05:29:00,
2013-08-28 00:30:00,76.8,73.3,28.67,NW,315,0.9,0.0,89,0.00,CLR,,0.00,WeatherDisplay:10.37,2013-08-28 05:30:00,
2013-08-28 00:31:00,76.8,73.3,28.67,NW,315,1.2,0.0,89,0.00,CLR,,0.00,WeatherDisplay:10.37,2013-08-28 05:31:00,
2013-08-28 00:33:00,76.8,73.3,28.67,NW,315,1.4,1.4,89,0.00,CLR,,0.00,WeatherDisplay:10.37,2013-08-28 05:33:00,
2013-08-28 00:34:00,76.8,73.3,28.67,NW,315,1.4,1.4,89,0.00,CLR,,0.00,WeatherDisplay:10.37,2013-08-28 05:34:00,
2013-08-28 00:35:00,76.8,73.3,28.67,NW,315,1.4,1.4,89,0.00,CLR,,0.00,WeatherDisplay:10.37,2013-08-28 05:35:00,
2013-08-28 00:36:00,76.8,73.3,28.67,NW,315,1.2,1.4,89,0.00,CLR,,0.00,WeatherDisplay:10.37,2013-08-28 05:36:00,
2013-08-28 00:37:00,76.8,73.3,28.67,NW,315,1.2,0.0,89,0.00,CLR,,0.00,WeatherDisplay:10.37,2013-08-28 05:37:00,
2013-08-28 00:38:00,76.8,73.3,28.67,NW,315,0.0,0.0,89,0.00,CLR,,0.00,WeatherDisplay:10.37,2013-08-28 05:38:00,
2013-08-28 00:39:00,76.8,73.3,28.67,NW,315,1.6,0.0,89,0.00,CLR,,0.00,WeatherDisplay:10.37,2013-08-28 05:39:00,
2013-08-28 00:40:00,76.8,73.3,28.67,NW,315,1.2,1.4,89,0.00,CLR,,0.00,WeatherDisplay:10.37,2013-08-28 05:40:00,
2013-08-28 00:41:00,76.8,73.3,28.67,NW,315,1.2,0.0,89,0.00,CLR,,0.00,WeatherDisplay:10.37,2013-08-28 05:41:00,
2013-08-28 00:42:00,76.8,73.3,28.67,NW,315,1.2,1.2,89,0.00,CLR,,0.00,WeatherDisplay:10.37,2013-08-28 05:42:00,
2013-08-28 00:43:00,76.8,73.3,28.67,NW,315,1.2,0.0,89,0.00,CLR,,0.00,WeatherDisplay:10.37,2013-08-28 05:43:00,
2013-08-28 00:44:00,76.6,73.2,28.67,NW,315,0.0,0.0,89,0.00,CLR,,0.00,WeatherDisplay:10.37,2013-08-28 05:44:00,
2013-08-28 00:45:00,76.6,73.2,28.67,NW,315,0.0,0.0,89,0.00,CLR,,0.00,WeatherDisplay:10.37,2013-08-28 05:45:00,
2013-08-28 00:46:00,76.6,73.2,28.67,NW,315,0.0,0.0,89,0.00,CLR,,0.00,WeatherDisplay:10.37,2013-08-28 05:46:00,
2013-08-28 00:47:00,76.6,73.2,28.67,NW,315,0.0,0.0,89,0.00,CLR,,0.00,WeatherDisplay:10.37,2013-08-28 05:47:00,
2013-08-28 00:49:00,76.5,73.0,28.67,WNW,292,1.6,1.6,89,0.00,CLR,,0.00,WeatherDisplay:10.37,2013-08-28 05:49:00,
2013-08-28 00:50:00,76.5,73.0,28.67,West,270,2.3,2.3,89,0.00,CLR,,0.00,WeatherDisplay:10.37,2013-08-28 05:50:00,
2013-08-28 00:51:00,76.3,72.8,28.67,NW,315,1.6,1.6,89,0.00,CLR,,0.00,WeatherDisplay:10.37,2013-08-28 05:51:00,
2013-08-28 00:52:00,76.3,72.8,28.67,NW,315,1.2,0.0,89,0.00,CLR,,0.00,WeatherDisplay:10.37,2013-08-28 05:52:00,
2013-08-28 00:54:00,76.1,72.6,28.67,NW,315,0.0,0.0,89,0.00,CLR,,0.00,WeatherDisplay:10.37,2013-08-28 05:54:00,
2013-08-28 00:56:00,76.1,72.6,28.67,NW,315,2.2,2.2,89,0.00,CLR,,0.00,WeatherDisplay:10.37,2013-08-28 05:56:00,
2013-08-28 00:57:00,75.9,72.4,28.67,NW,315,2.3,2.3,89,0.00,CLR,,0.00,WeatherDisplay:10.37,2013-08-28 05:57:00,
2013-08-28 01:00:00,75.7,72.3,28.67,NW,315,2.3,2.3,89,0.00,CLR,,0.00,WeatherDisplay:10.37,2013-08-28 06:00:00,
2013-08-28 01:01:00,75.6,72.1,28.67,NW,315,1.4,1.4,89,0.00,CLR,,0.00,WeatherDisplay:10.37,2013-08-28 06:01:00,
2013-08-28 01:02:00,75.6,72.1,28.67,NW,315,2.0,2.0,89,0.00,CLR,,0.00,WeatherDisplay:10.37,2013-08-28 06:02:00,
2013-08-28 01:05:00,75.6,72.4,28.67,NNW,338,2.4,2.4,90,0.00,CLR,,0.00,WeatherDisplay:10.37,2013-08-28 06:05:00,
2013-08-28 01:07:00,75.4,72.2,28.67,NNW,338,2.3,2.3,90,0.00,CLR,,0.00,WeatherDisplay:10.37,2013-08-28 06:07:00,
2013-08-28 01:08:00,75.4,72.2,28.67,NNW,338,2.3,2.3,90,0.00,CLR,,0.00,WeatherDisplay:10.37,2013-08-28 06:08:00,
2013-08-28 01:10:00,75.2,72.1,28.67,NNW,338,1.2,0.0,90,0.00,CLR,,0.00,WeatherDisplay:10.37,2013-08-28 06:10:00,
2013-08-28 01:12:00,75.2,72.1,28.67,NW,315,0.0,0.0,90,0.00,CLR,,0.00,WeatherDisplay:10.37,2013-08-28 06:12:00,
2013-08-28 01:13:00,75.2,72.1,28.67,NW,315,0.0,0.0,90,0.00,CLR,,0.00,WeatherDisplay:10.37,2013-08-28 06:13:00,
2013-08-28 01:15:00,75.2,72.1,28.67,WNW,292,1.2,0.0,90,0.00,CLR,,0.00,WeatherDisplay:10.37,2013-08-28 06:15:00,
2013-08-28 01:17:00,75.2,72.1,28.67,WNW,292,1.4,0.0,90,0.00,CLR,,0.00,WeatherDisplay:10.37,2013-08-28 06:17:00,
2013-08-28 01:18:00,75.2,72.1,28.67,WNW,292,2.3,2.3,90,0.00,CLR,,0.00,WeatherDisplay:10.37,2013-08-28 06:18:00,
2013-08-28 01:19:00,75.0,71.9,28.67,NW,315,2.3,2.3,90,0.00,CLR,,0.00,WeatherDisplay:10.37,2013-08-28 06:19:00,
2013-08-28 01:20:00,75.0,72.2,28.67,NW,315,1.6,1.6,91,0.00,CLR,,0.00,WeatherDisplay:10.37,2013-08-28 06:20:00,
2013-08-28 01:22:00,75.0,72.2,28.67,NNW,338,2.6,2.6,91,0.00,CLR,,0.00,WeatherDisplay:10.37,2013-08-28 06:22:00,
2013-08-28 01:23:00,75.0,72.2,28.67,NW,315,2.3,2.3,91,0.00,CLR,,0.00,WeatherDisplay:10.37,2013-08-28 06:23:00,
2013-08-28 01:24:00,75.0,72.2,28.67,NW,315,2.3,2.3,91,0.00,CLR,,0.00,WeatherDisplay:10.37,2013-08-28 06:24:00,
2013-08-28 01:25:00,75.0,72.2,28.67,NW,315,2.3,2.3,91,0.00,CLR,,0.00,WeatherDisplay:10.37,2013-08-28 06:25:00,
2013-08-28 01:27:00,75.0,72.2,28.67,NNW,338,2.3,2.3,91,0.00,CLR,,0.00,WeatherDisplay:10.37,2013-08-28 06:27:00,
2013-08-28 01:28:00,75.0,72.5,28.67,NNW,338,2.3,2.3,92,0.00,CLR,,0.00,WeatherDisplay:10.37,2013-08-28 06:28:00,
2013-08-28 01:30:00,75.0,72.5,28.67,NNW,338,0.0,0.0,92,0.00,CLR,,0.00,WeatherDisplay:10.37,2013-08-28 06:30:00,
2013-08-28 01:31:00,75.0,72.5,28.67,NNW,338,0.0,0.0,92,0.00,CLR,,0.00,WeatherDisplay:10.37,2013-08-28 06:31:00,
2013-08-28 01:32:00,75.0,72.5,28.67,NNW,338,0.0,0.0,92,0.00,CLR,,0.00,WeatherDisplay:10.37,2013-08-28 06:32:00,
2013-08-28 01:33:00,75.0,72.5,28.67,NNW,338,0.0,0.0,92,0.00,CLR,,0.00,WeatherDisplay:10.37,2013-08-28 06:33:00,
2013-08-28 01:35:00,74.8,72.4,28.67,NNW,338,0.0,0.0,92,0.00,CLR,,0.00,WeatherDisplay:10.37,2013-08-28 06:35:00,
2013-08-28 01:36:00,74.8,72.4,28.67,NNW,338,0.0,0.0,92,0.00,CLR,,0.00,WeatherDisplay:10.37,2013-08-28 06:36:00,
2013-08-28 01:37:00,74.8,72.4,28.67,NNW,338,0.0,0.0,92,0.00,CLR,,0.00,WeatherDisplay:10.37,2013-08-28 06:37:00,
2013-08-28 01:38:00,74.8,72.4,28.67,NW,315,0.9,0.0,92,0.00,CLR,,0.00,WeatherDisplay:10.37,2013-08-28 06:38:00,
2013-08-28 01:39:00,74.8,72.4,28.67,NNW,338,3.5,0.0,92,0.00,CLR,,0.00,WeatherDisplay:10.37,2013-08-28 06:39:00,
2013-08-28 01:41:00,75.0,72.9,28.67,North,0,2.3,2.3,93,0.00,CLR,,0.00,WeatherDisplay:10.37,2013-08-28 06:41:00,
2013-08-28 01:42:00,75.0,72.9,28.67,NNW,338,2.3,2.3,93,0.00,CLR,,0.00,WeatherDisplay:10.37,2013-08-28 06:42:00,
2013-08-28 01:43:00,75.0,72.9,28.67,NNW,338,1.2,1.2,93,0.00,CLR,,0.00,WeatherDisplay:10.37,2013-08-28 06:43:00,
2013-08-28 01:44:00,75.0,72.9,28.67,NNW,338,1.2,0.0,93,0.00,CLR,,0.00,WeatherDisplay:10.37,2013-08-28 06:44:00,
2013-08-28 01:46:00,74.8,72.7,28.67,NNE,22,0.0,0.0,93,0.00,CLR,,0.00,WeatherDisplay:10.37,2013-08-28 06:46:00,
2013-08-28 01:47:00,74.8,72.7,28.67,NNE,22,0.0,0.0,93,0.00,CLR,,0.00,WeatherDisplay:10.37,2013-08-28 06:47:00,
2013-08-28 01:48:00,74.8,72.7,28.67,NNE,22,1.2,1.2,93,0.00,CLR,,0.00,WeatherDisplay:10.37,2013-08-28 06:48:00,
2013-08-28 01:49:00,74.8,72.7,28.67,NNE,22,1.6,0.0,93,0.00,CLR,,0.00,WeatherDisplay:10.37,2013-08-28 06:49:00,
2013-08-28 01:51:00,74.8,73.0,28.67,NNW,338,2.3,2.3,94,0.00,CLR,,0.00,WeatherDisplay:10.37,2013-08-28 06:51:00,
2013-08-28 01:52:00,74.8,73.0,28.67,NNW,338,2.3,2.3,94,0.00,CLR,,0.00,WeatherDisplay:10.37,2013-08-28 06:52:00,
2013-08-28 01:53:00,74.8,73.0,28.67,NNW,338,2.3,2.3,94,0.00,CLR,,0.00,WeatherDisplay:10.37,2013-08-28 06:53:00,
2013-08-28 01:54:00,74.8,73.0,28.67,North,0,2.6,2.6,94,0.00,CLR,,0.00,WeatherDisplay:10.37,2013-08-28 06:54:00,
2013-08-28 01:56:00,74.8,73.0,28.64,NNW,338,3.1,3.1,94,0.00,CLR,,0.00,WeatherDisplay:10.37,2013-08-28 06:56:00,
2013-08-28 01:57:00,74.8,73.0,28.64,North,0,3.5,3.5,94,0.00,CLR,,0.00,WeatherDisplay:10.37,2013-08-28 06:57:00,
2013-08-28 01:58:00,74.8,73.0,28.64,North,0,3.5,3.5,94,0.00,CLR,,0.00,WeatherDisplay:10.37,2013-08-28 06:58:00,
2013-08-28 01:59:00,74.8,73.0,28.64,NNE,22,3.5,3.5,94,0.00,CLR,,0.00,WeatherDisplay:10.37,2013-08-28 06:59:00,
2013-08-28 02:02:00,75.0,73.5,28.64,NW,315,4.6,4.6,95,0.00,CLR,,0.00,WeatherDisplay:10.37,2013-08-28 07:02:00,
2013-08-28 02:03:00,75.0,73.5,28.64,NW,315,3.5,3.5,95,0.00,CLR,,0.00,WeatherDisplay:10.37,2013-08-28 07:03:00,
2013-08-28 02:04:00,75.0,73.5,28.64,NNW,338,2.6,2.6,95,0.00,CLR,,0.00,WeatherDisplay:10.37,2013-08-28 07:04:00,
2013-08-28 02:05:00,75.0,73.5,28.64,NNW,338,2.4,2.4,95,0.00,CLR,,0.00,WeatherDisplay:10.37,2013-08-28 07:05:00,
2013-08-28 02:08:00,75.0,73.8,28.64,NNW,338,3.5,3.5,96,0.00,CLR,,0.00,WeatherDisplay:10.37,2013-08-28 07:08:00,
2013-08-28 02:09:00,75.2,73.7,28.64,North,0,3.5,3.5,95,0.00,CLR,,0.00,WeatherDisplay:10.37,2013-08-28 07:09:00,
2013-08-28 02:10:00,75.2,73.7,28.67,North,0,3.5,3.5,95,0.00,CLR,,0.00,WeatherDisplay:10.37,2013-08-28 07:10:00,
2013-08-28 02:13:00,75.2,74.0,28.67,North,0,3.5,3.5,96,0.00,CLR,,0.00,WeatherDisplay:10.37,2013-08-28 07:13:00,
2013-08-28 02:14:00,75.2,74.0,28.67,North,0,2.3,2.3,96,0.00,CLR,,0.00,WeatherDisplay:10.37,2013-08-28 07:14:00,
2013-08-28 02:15:00,75.2,74.0,28.67,North,0,2.3,2.3,96,0.00,CLR,,0.00,WeatherDisplay:10.37,2013-08-28 07:15:00,
2013-08-28 02:16:00,75.2,74.0,28.67,NNE,22,3.5,3.5,96,0.00,CLR,,0.00,WeatherDisplay:10.37,2013-08-28 07:16:00,
2013-08-28 02:18:00,75.2,74.0,28.67,NNE,22,0.0,0.0,96,0.00,CLR,,0.00,WeatherDisplay:10.37,2013-08-28 07:18:00,
2013-08-28 02:19:00,75.2,74.0,28.67,NNE,22,1.2,0.0,96,0.00,CLR,,0.00,WeatherDisplay:10.37,2013-08-28 07:19:00,
2013-08-28 02:20:00,75.1,73.9,28.67,North,358,0.0,3.0,96,0.00,CLR,,0.00,WeatherDisplay:10.37,2013-08-28 07:20:00,
2013-08-28 02:21:00,75.0,73.8,28.67,North,0,1.6,1.6,96,0.00,CLR,,0.00,WeatherDisplay:10.37,2013-08-28 07:21:00,
2013-08-28 02:24:00,75.0,73.8,28.67,NE,45,1.4,1.4,96,0.00,CLR,,0.00,WeatherDisplay:10.37,2013-08-28 07:24:00,
2013-08-28 02:25:00,75.0,73.8,28.67,NNE,22,2.3,2.3,96,0.00,CLR,,0.00,WeatherDisplay:10.37,2013-08-28 07:25:00,
2013-08-28 02:28:00,75.0,73.8,28.67,North,0,1.2,0.0,96,0.00,CLR,,0.00,WeatherDisplay:10.37,2013-08-28 07:28:00,
2013-08-28 02:29:00,75.0,73.8,28.67,North,0,0.0,0.0,96,0.00,CLR,,0.00,WeatherDisplay:10.37,2013-08-28 07:29:00,
2013-08-28 02:30:00,75.0,73.8,28.67,North,355,0.0,2.0,96,0.00,CLR,,0.00,WeatherDisplay:10.37,2013-08-28 07:30:00,
2013-08-28 02:34:00,75.2,74.0,28.67,North,0,3.5,3.5,96,0.00,CLR,,0.00,WeatherDisplay:10.37,2013-08-28 07:34:00,
2013-08-28 02:35:00,75.2,74.0,28.67,North,0,3.5,3.5,96,0.00,CLR,,0.00,WeatherDisplay:10.37,2013-08-28 07:35:00,
2013-08-28 02:36:00,75.2,74.0,28.67,North,0,1.2,0.0,96,0.00,CLR,,0.00,WeatherDisplay:10.37,2013-08-28 07:36:00,
2013-08-28 02:39:00,75.2,74.0,28.67,NNW,338,2.4,2.4,96,0.00,CLR,,0.00,WeatherDisplay:10.37,2013-08-28 07:39:00,
2013-08-28 02:40:00,75.2,74.0,28.67,NNW,342,2.0,5.0,96,0.00,CLR,,0.00,WeatherDisplay:10.37,2013-08-28 07:40:00,
2013-08-28 02:41:00,75.4,74.2,28.67,NNE,22,4.6,4.6,96,0.00,CLR,,0.00,WeatherDisplay:10.37,2013-08-28 07:41:00,
2013-08-28 02:44:00,75.4,74.2,28.67,NNW,338,3.6,3.6,96,0.00,CLR,,0.00,WeatherDisplay:10.37,2013-08-28 07:44:00,
2013-08-28 02:45:00,75.2,74.0,28.67,NNW,338,3.5,3.5,96,0.00,CLR,,0.00,WeatherDisplay:10.37,2013-08-28 07:45:00,
2013-08-28 02:46:00,75.2,74.0,28.67,NNE,22,3.5,3.5,96,0.00,CLR,,0.00,WeatherDisplay:10.37,2013-08-28 07:46:00,
2013-08-28 02:47:00,75.2,74.0,28.67,NW,315,1.6,1.6,96,0.00,CLR,,0.00,WeatherDisplay:10.37,2013-08-28 07:47:00,
2013-08-28 02:49:00,75.4,74.2,28.67,NNW,338,4.6,4.6,96,0.00,CLR,,0.00,WeatherDisplay:10.37,2013-08-28 07:49:00,
2013-08-28 02:50:00,75.4,74.2,28.67,NNW,338,3.5,3.5,96,0.00,CLR,,0.00,WeatherDisplay:10.37,2013-08-28 07:50:00,
2013-08-28 02:51:00,75.4,74.2,28.67,North,0,3.5,3.5,96,0.00,CLR,,0.00,WeatherDisplay:10.37,2013-08-28 07:51:00,
2013-08-28 02:52:00,75.4,74.2,28.67,North,0,3.5,3.5,96,0.00,CLR,,0.00,WeatherDisplay:10.37,2013-08-28 07:52:00,
2013-08-28 02:55:00,75.4,74.2,28.67,North,0,2.3,2.3,96,0.00,CLR,,0.00,WeatherDisplay:10.37,2013-08-28 07:55:00,
2013-08-28 02:56:00,75.4,74.2,28.67,North,0,2.3,2.3,96,0.00,CLR,,0.00,WeatherDisplay:10.37,2013-08-28 07:56:00,
2013-08-28 02:57:00,75.4,74.2,28.67,NNE,22,2.4,0.0,96,0.00,CLR,,0.00,WeatherDisplay:10.37,2013-08-28 07:57:00,
2013-08-28 02:58:00,75.4,74.2,28.67,NNE,22,2.3,2.3,96,0.00,CLR,,0.00,WeatherDisplay:10.37,2013-08-28 07:58:00,
2013-08-28 03:00:00,75.4,74.2,28.67,North,0,1.2,0.0,96,0.00,CLR,,0.00,WeatherDisplay:10.37,2013-08-28 08:00:00,
2013-08-28 03:01:00,75.4,74.2,28.67,ENE,68,1.2,1.2,96,0.00,CLR,,0.00,WeatherDisplay:10.37,2013-08-28 08:01:00,
2013-08-28 03:04:00,75.4,74.2,28.67,NE,45,2.4,2.4,96,0.00,CLR,,0.00,WeatherDisplay:10.37,2013-08-28 08:04:00,
2013-08-28 03:05:00,75.4,74.2,28.67,NNE,22,2.3,2.3,96,0.00,CLR,,0.00,WeatherDisplay:10.37,2013-08-28 08:05:00,
2013-08-28 03:06:00,75.4,74.2,28.67,ENE,68,2.3,2.3,96,0.00,CLR,,0.00,WeatherDisplay:10.37,2013-08-28 08:06:00,
2013-08-28 03:07:00,75.6,74.3,28.67,ENE,68,2.3,0.0,96,0.00,CLR,,0.00,WeatherDisplay:10.37,2013-08-28 08:07:00,
2013-08-28 03:09:00,75.4,74.2,28.67,NE,45,0.0,0.0,96,0.00,CLR,,0.00,WeatherDisplay:10.37,2013-08-28 08:09:00,
2013-08-28 03:10:00,75.4,74.2,28.67,NE,45,0.0,0.0,96,0.00,CLR,,0.00,WeatherDisplay:10.37,2013-08-28 08:10:00,
2013-08-28 03:11:00,75.6,74.3,28.67,North,0,2.3,2.3,96,0.00,CLR,,0.00,WeatherDisplay:10.37,2013-08-28 08:11:00,
2013-08-28 03:13:00,75.6,74.3,28.67,NE,45,2.9,2.9,96,0.00,CLR,,0.00,WeatherDisplay:10.37,2013-08-28 08:13:00,
2013-08-28 03:15:00,75.6,74.3,28.67,NE,45,2.3,0.0,96,0.00,CLR,,0.00,WeatherDisplay:10.37,2013-08-28 08:15:00,
2013-08-28 03:16:00,75.6,74.3,28.67,North,0,3.5,3.5,96,0.00,CLR,,0.00,WeatherDisplay:10.37,2013-08-28 08:16:00,
2013-08-28 03:18:00,75.6,74.3,28.67,NNE,22,3.5,3.5,96,0.00,CLR,,0.00,WeatherDisplay:10.37,2013-08-28 08:18:00,
2013-08-28 03:20:00,75.4,74.2,28.67,North,0,3.1,3.1,96,0.00,CLR,,0.00,WeatherDisplay:10.37,2013-08-28 08:20:00,
2013-08-28 03:21:00,75.4,74.2,28.67,NNE,22,3.5,3.5,96,0.00,CLR,,0.00,WeatherDisplay:10.37,2013-08-28 08:21:00,
2013-08-28 03:22:00,75.4,74.2,28.67,North,0,2.4,2.4,96,0.00,CLR,,0.00,WeatherDisplay:10.37,2013-08-28 08:22:00,
2013-08-28 03:24:00,75.4,74.2,28.67,North,0,4.6,4.6,96,0.00,CLR,,0.00,WeatherDisplay:10.37,2013-08-28 08:24:00,
2013-08-28 03:25:00,75.4,74.2,28.67,NNE,22,4.6,4.6,96,0.00,CLR,,0.00,WeatherDisplay:10.37,2013-08-28 08:25:00,
2013-08-28 03:26:00,75.4,74.2,28.67,NNE,22,1.2,0.0,96,0.00,CLR,,0.00,WeatherDisplay:10.37,2013-08-28 08:26:00,
2013-08-28 03:27:00,75.4,74.2,28.67,NNE,22,1.6,1.6,96,0.00,CLR,,0.00,WeatherDisplay:10.37,2013-08-28 08:27:00,
2013-08-28 03:28:00,75.4,74.2,28.67,North,0,3.5,3.5,96,0.00,CLR,,0.00,WeatherDisplay:10.37,2013-08-28 08:28:00,
2013-08-28 03:29:00,75.4,74.2,28.67,North,0,1.2,0.0,96,0.00,CLR,,0.00,WeatherDisplay:10.37,2013-08-28 08:29:00,
2013-08-28 03:30:00,75.4,74.2,28.67,NNE,22,2.6,0.0,96,0.00,CLR,,0.00,WeatherDisplay:10.37,2013-08-28 08:30:00,
2013-08-28 03:32:00,75.2,74.0,28.67,NE,45,4.6,4.6,96,0.00,CLR,,0.00,WeatherDisplay:10.37,2013-08-28 08:32:00,
2013-08-28 03:33:00,75.2,74.0,28.67,NNE,22,3.5,3.5,96,0.00,CLR,,0.00,WeatherDisplay:10.37,2013-08-28 08:33:00,
2013-08-28 03:35:00,75.2,74.0,28.67,ENE,68,2.6,2.6,96,0.00,CLR,,0.00,WeatherDisplay:10.37,2013-08-28 08:35:00,
2013-08-28 03:36:00,75.2,74.0,28.67,NNE,22,2.3,0.0,96,0.00,CLR,,0.00,WeatherDisplay:10.37,2013-08-28 08:36:00,
2013-08-28 03:37:00,75.2,74.0,28.67,NE,45,1.6,0.0,96,0.00,CLR,,0.00,WeatherDisplay:10.37,2013-08-28 08:37:00,
2013-08-28 03:38:00,75.2,74.0,28.67,North,0,1.2,0.0,96,0.00,CLR,,0.00,WeatherDisplay:10.37,2013-08-28 08:38:00,
2013-08-28 03:40:00,75.2,73.7,28.70,ENE,68,0.0,0.0,95,0.00,CLR,,0.00,WeatherDisplay:10.37,2013-08-28 08:40:00,
2013-08-28 03:41:00,75.2,73.7,28.70,East,90,1.2,0.0,95,0.00,CLR,,0.00,WeatherDisplay:10.37,2013-08-28 08:41:00,
2013-08-28 03:42:00,75.2,73.7,28.70,NNE,22,1.2,0.0,95,0.00,CLR,,0.00,WeatherDisplay:10.37,2013-08-28 08:42:00,
2013-08-28 03:43:00,75.2,73.7,28.70,NE,45,2.9,2.9,95,0.00,CLR,,0.00,WeatherDisplay:10.37,2013-08-28 08:43:00,
2013-08-28 03:45:00,75.2,73.7,28.70,East,90,4.6,4.6,95,0.00,CLR,,0.00,WeatherDisplay:10.37,2013-08-28 08:45:00,
2013-08-28 03:46:00,75.2,73.7,28.70,NNE,22,2.0,2.0,95,0.00,CLR,,0.00,WeatherDisplay:10.37,2013-08-28 08:46:00,
2013-08-28 03:47:00,75.2,73.7,28.70,NNE,22,2.3,2.3,95,0.00,CLR,,0.00,WeatherDisplay:10.37,2013-08-28 08:47:00,
2013-08-28 03:48:00,75.2,73.7,28.70,NW,315,3.3,3.3,95,0.00,CLR,,0.00,WeatherDisplay:10.37,2013-08-28 08:48:00,
2013-08-28 03:49:00,75.2,73.7,28.70,NNE,22,3.5,3.5,95,0.00,CLR,,0.00,WeatherDisplay:10.37,2013-08-28 08:49:00,
2013-08-28 03:50:00,75.2,73.7,28.70,ENE,68,2.3,2.3,95,0.00,CLR,,0.00,WeatherDisplay:10.37,2013-08-28 08:50:00,
2013-08-28 03:51:00,75.2,73.7,28.70,ENE,68,2.3,2.3,95,0.00,CLR,,0.00,WeatherDisplay:10.37,2013-08-28 08:51:00,
2013-08-28 03:52:00,75.2,73.7,28.70,NE,45,3.5,3.5,95,0.00,CLR,,0.00,WeatherDisplay:10.37,2013-08-28 08:52:00,
2013-08-28 03:54:00,75.2,73.7,28.70,East,90,5.8,5.8,95,0.00,CLR,,0.00,WeatherDisplay:10.37,2013-08-28 08:54:00,
2013-08-28 03:55:00,75.2,73.7,28.70,North,0,4.6,4.6,95,0.00,CLR,,0.00,WeatherDisplay:10.37,2013-08-28 08:55:00,
2013-08-28 03:56:00,75.2,73.7,28.70,East,90,4.6,4.6,95,0.00,CLR,,0.00,WeatherDisplay:10.37,2013-08-28 08:56:00,
2013-08-28 03:57:00,75.2,73.7,28.70,NE,45,4.9,4.9,95,0.00,CLR,,0.00,WeatherDisplay:10.37,2013-08-28 08:57:00,
2013-08-28 03:59:00,75.2,73.7,28.70,NE,45,4.6,4.6,95,0.00,CLR,,0.00,WeatherDisplay:10.37,2013-08-28 08:59:00,
2013-08-28 04:01:00,75.2,73.7,28.70,NE,45,2.3,2.3,95,0.00,CLR,,0.00,WeatherDisplay:10.37,2013-08-28 09:01:00,
2013-08-28 04:02:00,75.2,73.7,28.70,NE,45,2.3,2.3,95,0.00,CLR,,0.00,WeatherDisplay:10.37,2013-08-28 09:02:00,
2013-08-28 04:04:00,75.2,73.7,28.70,NNE,22,3.5,3.5,95,0.00,CLR,,0.00,WeatherDisplay:10.37,2013-08-28 09:04:00,
2013-08-28 04:06:00,75.2,73.7,28.70,East,90,3.5,3.5,95,0.00,CLR,,0.00,WeatherDisplay:10.37,2013-08-28 09:06:00,
2013-08-28 04:07:00,75.0,73.5,28.70,North,0,3.5,3.5,95,0.00,CLR,,0.00,WeatherDisplay:10.37,2013-08-28 09:07:00,
2013-08-28 04:10:00,75.0,73.5,28.73,NE,45,3.5,3.5,95,0.00,CLR,,0.00,WeatherDisplay:10.37,2013-08-28 09:10:00,
2013-08-28 04:11:00,75.0,73.5,28.73,NE,45,3.5,3.5,95,0.00,CLR,,0.00,WeatherDisplay:10.37,2013-08-28 09:11:00,
2013-08-28 04:12:00,75.0,73.5,28.73,NE,45,3.5,3.5,95,0.00,CLR,,0.00,WeatherDisplay:10.37,2013-08-28 09:12:00,
2013-08-28 04:15:00,75.0,73.2,28.73,NE,45,3.5,3.5,94,0.00,CLR,,0.00,WeatherDisplay:10.37,2013-08-28 09:15:00,
2013-08-28 04:16:00,75.0,73.2,28.73,NNE,22,3.5,3.5,94,0.00,CLR,,0.00,WeatherDisplay:10.37,2013-08-28 09:16:00,
2013-08-28 04:17:00,75.0,73.2,28.73,NNE,22,2.3,2.3,94,0.00,CLR,,0.00,WeatherDisplay:10.37,2013-08-28 09:17:00,
2013-08-28 04:20:00,74.8,73.0,28.73,ENE,68,3.6,3.6,94,0.00,CLR,,0.00,WeatherDisplay:10.37,2013-08-28 09:20:00,
2013-08-28 04:22:00,74.8,73.0,28.73,ENE,68,3.5,3.5,94,0.00,CLR,,0.00,WeatherDisplay:10.37,2013-08-28 09:22:00,
2013-08-28 04:23:00,74.8,73.0,28.73,ENE,68,3.5,3.5,94,0.00,CLR,,0.00,WeatherDisplay:10.37,2013-08-28 09:23:00,
2013-08-28 04:26:00,74.8,73.0,28.73,NNE,22,3.6,3.6,94,0.00,CLR,,0.00,WeatherDisplay:10.37,2013-08-28 09:26:00,
2013-08-28 04:27:00,74.8,73.0,28.73,NNE,22,3.5,3.5,94,0.00,CLR,,0.00,WeatherDisplay:10.37,2013-08-28 09:27:00,
2013-08-28 04:28:00,74.8,73.0,28.73,NE,45,3.6,3.6,94,0.00,CLR,,0.00,WeatherDisplay:10.37,2013-08-28 09:28:00,
2013-08-28 04:29:00,74.8,73.0,28.73,ENE,68,6.0,6.0,94,0.00,CLR,,0.00,WeatherDisplay:10.37,2013-08-28 09:29:00,
2013-08-28 04:32:00,74.8,73.0,28.73,NE,45,2.3,2.3,94,0.00,CLR,,0.00,WeatherDisplay:10.37,2013-08-28 09:32:00,
2013-08-28 04:33:00,74.8,73.0,28.73,NE,45,4.6,4.6,94,0.00,CLR,,0.00,WeatherDisplay:10.37,2013-08-28 09:33:00,
2013-08-28 04:34:00,74.8,73.0,28.73,North,0,2.3,2.6,94,0.00,CLR,,0.00,WeatherDisplay:10.37,2013-08-28 09:34:00,
2013-08-28 04:35:00,74.8,73.0,28.73,NE,34,2.0,6.0,94,0.00,CLR,,0.00,WeatherDisplay:10.37,2013-08-28 09:35:00,
2013-08-28 04:37:00,74.7,72.8,28.73,NE,45,6.0,6.0,94,0.00,CLR,,0.00,WeatherDisplay:10.37,2013-08-28 09:37:00,
2013-08-28 04:38:00,74.7,72.8,28.73,NE,45,6.2,6.2,94,0.00,CLR,,0.00,WeatherDisplay:10.37,2013-08-28 09:38:00,
2013-08-28 04:39:00,74.7,72.8,28.73,NE,45,5.8,5.8,94,0.00,CLR,,0.00,WeatherDisplay:10.37,2013-08-28 09:39:00,
2013-08-28 04:40:00,74.7,72.8,28.73,ENE,68,4.6,4.6,94,0.00,CLR,,0.00,WeatherDisplay:10.37,2013-08-28 09:40:00,
2013-08-28 04:42:00,74.7,72.8,28.73,NE,45,2.4,2.4,94,0.00,CLR,,0.00,WeatherDisplay:10.37,2013-08-28 09:42:00,
2013-08-28 04:43:00,74.7,72.8,28.73,North,0,2.3,2.3,94,0.00,CLR,,0.00,WeatherDisplay:10.37,2013-08-28 09:43:00,
2013-08-28 04:44:00,74.5,72.6,28.73,North,0,4.6,4.6,94,0.00,CLR,,0.00,WeatherDisplay:10.37,2013-08-28 09:44:00,
2013-08-28 04:45:00,74.5,72.6,28.73,NE,45,6.9,6.9,94,0.00,CLR,,0.00,WeatherDisplay:10.37,2013-08-28 09:45:00,
2013-08-28 04:48:00,74.5,72.6,28.73,NW,315,4.6,4.6,94,0.00,CLR,,0.00,WeatherDisplay:10.37,2013-08-28 09:48:00,
2013-08-28 04:49:00,74.5,72.6,28.73,NNE,22,3.5,3.5,94,0.00,CLR,,0.00,WeatherDisplay:10.37,2013-08-28 09:49:00,
2013-08-28 04:50:00,74.5,72.6,28.73,NNE,22,3.5,3.5,94,0.00,CLR,,0.00,WeatherDisplay:10.37,2013-08-28 09:50:00,
2013-08-28 04:53:00,74.5,72.6,28.73,NNE,22,2.3,0.0,94,0.00,CLR,,0.00,WeatherDisplay:10.37,2013-08-28 09:53:00,
2013-08-28 04:54:00,74.5,72.6,28.73,NE,45,2.3,0.0,94,0.00,CLR,,0.00,WeatherDisplay:10.37,2013-08-28 09:54:00,
2013-08-28 04:55:00,74.5,72.6,28.73,NW,315,2.3,2.3,94,0.00,CLR,,0.00,WeatherDisplay:10.37,2013-08-28 09:55:00,
2013-08-28 04:56:00,74.5,72.6,28.73,North,0,1.2,0.0,94,0.00,CLR,,0.00,WeatherDisplay:10.37,2013-08-28 09:56:00,
2013-08-28 04:58:00,74.5,72.6,28.73,North,0,2.3,2.3,94,0.00,CLR,,0.00,WeatherDisplay:10.37,2013-08-28 09:58:00,
2013-08-28 04:59:00,74.5,72.6,28.73,NE,45,2.3,2.3,94,0.00,CLR,,0.00,WeatherDisplay:10.37,2013-08-28 09:59:00,
2013-08-28 05:00:00,74.5,72.6,28.73,NNE,22,2.3,2.3,94,0.00,CLR,,0.00,WeatherDisplay:10.37,2013-08-28 10:00:00,
2013-08-28 05:01:00,74.5,72.6,28.73,NNE,22,1.2,0.0,94,0.00,CLR,,0.00,WeatherDisplay:10.37,2013-08-28 10:01:00,
2013-08-28 05:02:00,74.5,72.6,28.73,NE,45,1.2,0.0,94,0.00,CLR,,0.00,WeatherDisplay:10.37,2013-08-28 10:02:00,
2013-08-28 05:03:00,74.5,72.6,28.73,North,0,2.2,0.0,94,0.00,CLR,,0.00,WeatherDisplay:10.37,2013-08-28 10:03:00,
2013-08-28 05:04:00,74.5,72.6,28.73,North,0,2.3,2.3,94,0.00,CLR,,0.00,WeatherDisplay:10.37,2013-08-28 10:04:00,
2013-08-28 05:05:00,74.5,72.6,28.73,NE,45,1.2,0.0,94,0.00,CLR,,0.00,WeatherDisplay:10.37,2013-08-28 10:05:00,
2013-08-28 05:06:00,74.5,72.6,28.73,NNE,22,2.0,0.0,94,0.00,CLR,,0.00,WeatherDisplay:10.37,2013-08-28 10:06:00,
2013-08-28 05:07:00,74.5,72.6,28.73,NE,45,2.3,2.3,94,0.00,CLR,,0.00,WeatherDisplay:10.37,2013-08-28 10:07:00,
2013-08-28 05:08:00,74.5,72.6,28.73,NNE,22,2.6,2.6,94,0.00,CLR,,0.00,WeatherDisplay:10.37,2013-08-28 10:08:00,
2013-08-28 05:10:00,74.5,72.6,28.73,NE,45,2.3,2.3,94,0.00,CLR,,0.00,WeatherDisplay:10.37,2013-08-28 10:10:00,
2013-08-28 05:11:00,74.5,72.6,28.73,NE,45,2.3,0.0,94,0.00,CLR,,0.00,WeatherDisplay:10.37,2013-08-28 10:11:00,
2013-08-28 05:12:00,74.5,72.6,28.73,NE,45,0.0,0.0,94,0.00,CLR,,0.00,WeatherDisplay:10.37,2013-08-28 10:12:00,
2013-08-28 05:13:00,74.5,72.6,28.73,NE,45,0.0,0.0,94,0.00,CLR,,0.00,WeatherDisplay:10.37,2013-08-28 10:13:00,
2013-08-28 05:15:00,74.5,72.6,28.73,NNE,22,2.9,2.9,94,0.00,CLR,,0.00,WeatherDisplay:10.37,2013-08-28 10:15:00,
2013-08-28 05:16:00,74.5,72.6,28.73,NE,45,2.3,2.3,94,0.00,CLR,,0.00,WeatherDisplay:10.37,2013-08-28 10:16:00,
2013-08-28 05:18:00,74.5,72.6,28.73,NE,45,3.5,3.5,94,0.00,CLR,,0.00,WeatherDisplay:10.37,2013-08-28 10:18:00,
2013-08-28 05:19:00,74.5,72.6,28.73,NNE,22,2.3,2.3,94,0.00,CLR,,0.00,WeatherDisplay:10.37,2013-08-28 10:19:00,
2013-08-28 05:20:00,74.5,72.6,28.73,NNE,22,2.3,0.0,94,0.00,CLR,,0.00,WeatherDisplay:10.37,2013-08-28 10:20:00,
2013-08-28 05:21:00,74.5,72.6,28.73,NE,45,1.2,0.0,94,0.00,CLR,,0.00,WeatherDisplay:10.37,2013-08-28 10:21:00,
2013-08-28 05:23:00,74.3,72.5,28.73,NE,45,1.2,1.4,94,0.00,CLR,,0.00,WeatherDisplay:10.37,2013-08-28 10:23:00,
2013-08-28 05:24:00,74.3,72.5,28.73,ENE,68,1.6,1.6,94,0.00,CLR,,0.00,WeatherDisplay:10.37,2013-08-28 10:24:00,
2013-08-28 05:25:00,74.3,72.5,28.73,NNE,22,2.3,2.3,94,0.00,CLR,,0.00,WeatherDisplay:10.37,2013-08-28 10:25:00,
2013-08-28 05:27:00,74.3,72.8,28.73,North,0,2.9,2.9,95,0.00,CLR,,0.00,WeatherDisplay:10.37,2013-08-28 10:27:00,
2013-08-28 05:28:00,74.3,72.8,28.73,ENE,68,3.6,3.6,95,0.00,CLR,,0.00,WeatherDisplay:10.37,2013-08-28 10:28:00,
2013-08-28 05:29:00,74.3,72.8,28.73,NE,45,5.8,5.8,95,0.00,CLR,,0.00,WeatherDisplay:10.37,2013-08-28 10:29:00,
2013-08-28 05:30:00,74.3,72.8,28.73,NE,45,5.8,5.8,95,0.00,CLR,,0.00,WeatherDisplay:10.37,2013-08-28 10:30:00,
2013-08-28 05:33:00,74.3,72.8,28.73,ENE,68,5.8,5.8,95,0.00,CLR,,0.00,WeatherDisplay:10.37,2013-08-28 10:33:00,
2013-08-28 05:34:00,74.3,72.8,28.73,NE,45,4.6,4.6,95,0.00,CLR,,0.00,WeatherDisplay:10.37,2013-08-28 10:34:00,
2013-08-28 05:35:00,74.3,72.8,28.73,NE,45,4.9,4.9,95,0.00,CLR,,0.00,WeatherDisplay:10.37,2013-08-28 10:35:00,
2013-08-28 05:38:00,74.3,72.8,28.73,NE,45,4.6,4.6,95,0.00,CLR,,0.00,WeatherDisplay:10.37,2013-08-28 10:38:00,
2013-08-28 05:39:00,74.3,72.8,28.73,East,90,8.1,8.1,95,0.00,CLR,,0.00,WeatherDisplay:10.37,2013-08-28 10:39:00,
2013-08-28 05:40:00,74.1,72.6,28.73,North,0,8.1,8.1,95,0.00,CLR,,0.00,WeatherDisplay:10.37,2013-08-28 10:40:00,
2013-08-28 05:43:00,74.1,72.6,28.73,NE,45,3.8,3.8,95,0.00,CLR,,0.00,WeatherDisplay:10.37,2013-08-28 10:43:00,
2013-08-28 05:44:00,74.1,72.6,28.73,NE,45,3.5,3.5,95,0.00,CLR,,0.00,WeatherDisplay:10.37,2013-08-28 10:44:00,
2013-08-28 05:45:00,74.1,72.6,28.73,East,90,2.3,2.3,95,0.00,CLR,,0.00,WeatherDisplay:10.37,2013-08-28 10:45:00,
2013-08-28 05:46:00,74.1,72.6,28.73,ENE,68,2.3,2.3,95,0.00,CLR,,0.00,WeatherDisplay:10.37,2013-08-28 10:46:00,
2013-08-28 05:48:00,73.9,72.4,28.73,NNE,22,3.5,3.5,95,0.00,CLR,,0.00,WeatherDisplay:10.37,2013-08-28 10:48:00,
2013-08-28 05:49:00,73.9,72.4,28.73,NE,45,3.5,3.5,95,0.00,CLR,,0.00,WeatherDisplay:10.37,2013-08-28 10:49:00,
2013-08-28 05:50:00,73.9,72.4,28.73,NNW,338,3.5,3.5,95,0.00,CLR,,0.00,WeatherDisplay:10.37,2013-08-28 10:50:00,
2013-08-28 05:51:00,73.9,72.1,28.73,North,0,3.5,3.5,94,0.00,CLR,,0.00,WeatherDisplay:10.37,2013-08-28 10:51:00,
2013-08-28 05:52:00,73.9,72.1,28.73,NE,45,3.6,3.6,94,0.00,CLR,,0.00,WeatherDisplay:10.37,2013-08-28 10:52:00,
2013-08-28 05:54:00,73.9,72.1,28.73,North,0,4.9,4.9,94,0.00,CLR,,0.00,WeatherDisplay:10.37,2013-08-28 10:54:00,
2013-08-28 05:55:00,73.9,72.1,28.74,NNE,30,3.0,6.0,94,0.00,CLR,,0.00,WeatherDisplay:10.37,2013-08-28 10:55:00,
2013-08-28 05:56:00,73.9,72.1,28.76,NE,45,5.8,5.8,94,0.00,CLR,,0.00,WeatherDisplay:10.37,2013-08-28 10:56:00,
2013-08-28 05:57:00,73.8,71.9,28.76,ENE,68,4.0,4.0,94,0.00,CLR,,0.00,WeatherDisplay:10.37,2013-08-28 10:57:00,
2013-08-28 05:59:00,73.8,71.9,28.76,ENE,68,2.3,2.3,94,0.00,CLR,,0.00,WeatherDisplay:10.37,2013-08-28 10:59:00,
2013-08-28 06:00:00,73.8,71.9,28.76,NE,42,2.0,6.0,94,0.00,CLR,,0.00,WeatherDisplay:10.37,2013-08-28 11:00:00,
2013-08-28 06:01:00,73.8,71.9,28.76,NE,45,4.6,4.6,94,0.00,CLR,,0.00,WeatherDisplay:10.37,2013-08-28 11:01:00,
2013-08-28 06:03:00,73.8,71.9,28.76,NW,315,5.8,5.8,94,0.00,CLR,,0.00,WeatherDisplay:10.37,2013-08-28 11:03:00,
2013-08-28 06:04:00,73.8,71.9,28.76,East,90,4.5,4.5,94,0.00,CLR,,0.00,WeatherDisplay:10.37,2013-08-28 11:04:00,
2013-08-28 06:05:00,73.8,71.9,28.76,ENE,68,5.8,5.8,94,0.00,CLR,,0.00,WeatherDisplay:10.37,2013-08-28 11:05:00,
2013-08-28 06:07:00,73.8,71.6,28.76,NE,45,4.6,4.6,93,0.00,CLR,,0.00,WeatherDisplay:10.37,2013-08-28 11:07:00,
2013-08-28 06:08:00,73.8,71.6,28.76,NE,45,2.3,2.3,93,0.00,CLR,,0.00,WeatherDisplay:10.37,2013-08-28 11:08:00,
2013-08-28 06:09:00,73.8,71.6,28.76,NNE,22,3.6,3.6,93,0.00,CLR,,0.00,WeatherDisplay:10.37,2013-08-28 11:09:00,
2013-08-28 06:10:00,73.8,71.6,28.76,NW,315,3.6,3.6,93,0.00,CLR,,0.00,WeatherDisplay:10.37,2013-08-28 11:10:00,
2013-08-28 06:11:00,73.8,71.6,28.76,NNW,338,7.6,7.6,93,0.00,CLR,,0.00,WeatherDisplay:10.37,2013-08-28 11:11:00,
2013-08-28 06:12:00,73.8,71.6,28.76,NE,45,8.1,8.1,93,0.00,CLR,,0.00,WeatherDisplay:10.37,2013-08-28 11:12:00,
2013-08-28 06:13:00,73.8,71.6,28.76,East,90,5.8,5.8,93,0.00,CLR,,0.00,WeatherDisplay:10.37,2013-08-28 11:13:00,
2013-08-28 06:14:00,73.8,71.6,28.76,NE,45,5.8,5.8,93,0.00,CLR,,0.00,WeatherDisplay:10.37,2013-08-28 11:14:00,
2013-08-28 06:16:00,73.8,71.6,28.76,NNE,22,3.5,3.5,93,0.00,CLR,,0.00,WeatherDisplay:10.37,2013-08-28 11:16:00,
2013-08-28 06:18:00,73.8,71.6,28.76,ENE,68,5.4,5.4,93,0.00,CLR,,0.00,WeatherDisplay:10.37,2013-08-28 11:18:00,
2013-08-28 06:20:00,73.8,71.6,28.76,NE,45,3.0,6.0,93,0.00,CLR,,0.00,WeatherDisplay:10.37,2013-08-28 11:20:00,
2013-08-28 06:21:00,73.8,71.6,28.76,ENE,68,4.6,4.6,93,0.00,CLR,,0.00,WeatherDisplay:10.37,2013-08-28 11:21:00,
2013-08-28 06:23:00,73.8,71.6,28.76,NE,45,6.9,6.9,93,0.00,CLR,,0.00,WeatherDisplay:10.37,2013-08-28 11:23:00,
2013-08-28 06:24:00,73.8,71.6,28.76,ENE,68,6.9,6.9,93,0.00,CLR,,0.00,WeatherDisplay:10.37,2013-08-28 11:24:00,
2013-08-28 06:26:00,73.8,71.6,28.76,East,90,6.9,6.9,93,0.00,CLR,,0.00,WeatherDisplay:10.37,2013-08-28 11:26:00,
2013-08-28 06:28:00,73.8,71.6,28.76,NNE,22,5.9,5.9,93,0.00,CLR,,0.00,WeatherDisplay:10.37,2013-08-28 11:28:00,
2013-08-28 06:29:00,73.8,71.3,28.76,ENE,68,5.8,5.8,92,0.00,CLR,,0.00,WeatherDisplay:10.37,2013-08-28 11:29:00,
2013-08-28 06:31:00,73.8,71.3,28.76,ENE,68,3.6,3.6,92,0.00,CLR,,0.00,WeatherDisplay:10.37,2013-08-28 11:31:00,
2013-08-28 06:33:00,73.8,71.3,28.76,ENE,68,5.9,5.9,92,0.00,CLR,,0.00,WeatherDisplay:10.37,2013-08-28 11:33:00,
2013-08-28 06:35:00,73.8,71.6,28.76,ENE,59,5.0,6.0,93,0.00,CLR,,0.00,WeatherDisplay:10.37,2013-08-28 11:35:00,
2013-08-28 06:36:00,73.8,71.6,28.76,NE,45,2.3,2.3,93,0.00,CLR,,0.00,WeatherDisplay:10.37,2013-08-28 11:36:00,
2013-08-28 06:37:00,73.8,71.3,28.76,ENE,68,2.3,2.3,92,0.00,CLR,,0.00,WeatherDisplay:10.37,2013-08-28 11:37:00,
2013-08-28 06:38:00,73.8,71.3,28.76,ENE,68,2.0,2.0,92,0.00,CLR,,0.00,WeatherDisplay:10.37,2013-08-28 11:38:00,
2013-08-28 06:40:00,73.8,71.3,28.79,NE,45,3.5,3.5,92,0.00,CLR,,0.00,WeatherDisplay:10.37,2013-08-28 11:40:00,
2013-08-28 06:41:00,73.8,71.3,28.79,NE,45,4.9,4.9,92,0.00,CLR,,0.00,WeatherDisplay:10.37,2013-08-28 11:41:00,
2013-08-28 06:42:00,73.8,71.3,28.79,NE,45,5.8,5.8,92,0.00,CLR,,0.00,WeatherDisplay:10.37,2013-08-28 11:42:00,
2013-08-28 06:43:00,73.8,71.3,28.79,East,90,4.6,4.6,92,0.00,CLR,,0.00,WeatherDisplay:10.37,2013-08-28 11:43:00,
2013-08-28 06:46:00,73.8,71.3,28.79,ENE,68,3.1,3.1,92,0.00,CLR,,0.00,WeatherDisplay:10.37,2013-08-28 11:46:00,
2013-08-28 06:47:00,73.8,71.3,28.79,ENE,68,3.5,3.5,92,0.00,CLR,,0.00,WeatherDisplay:10.37,2013-08-28 11:47:00,
2013-08-28 06:48:00,73.8,71.3,28.79,NE,45,2.6,2.6,92,0.00,CLR,,0.00,WeatherDisplay:10.37,2013-08-28 11:48:00,
2013-08-28 06:49:00,73.8,71.3,28.79,NE,45,2.9,2.9,92,0.00,CLR,,0.00,WeatherDisplay:10.37,2013-08-28 11:49:00,
2013-08-28 06:51:00,73.8,71.3,28.79,East,90,2.3,2.3,92,0.00,CLR,,0.00,WeatherDisplay:10.37,2013-08-28 11:51:00,
2013-08-28 06:52:00,73.8,71.3,28.79,East,90,2.3,2.3,92,0.00,CLR,,0.00,WeatherDisplay:10.37,2013-08-28 11:52:00,
2013-08-28 06:53:00,73.8,71.3,28.79,East,90,2.3,2.3,92,0.00,CLR,,0.00,WeatherDisplay:10.37,2013-08-28 11:53:00,
2013-08-28 06:54:00,73.8,71.3,28.79,NE,45,3.5,3.5,92,0.00,CLR,,0.00,WeatherDisplay:10.37,2013-08-28 11:54:00,
2013-08-28 06:57:00,73.9,71.1,28.79,NE,45,3.5,3.5,91,0.00,CLR,,0.00,WeatherDisplay:10.37,2013-08-28 11:57:00,
2013-08-28 06:58:00,73.9,71.1,28.79,NNE,22,2.4,2.6,91,0.00,CLR,,0.00,WeatherDisplay:10.37,2013-08-28 11:58:00,
2013-08-28 06:59:00,73.9,71.1,28.79,ESE,112,3.5,3.5,91,0.00,CLR,,0.00,WeatherDisplay:10.37,2013-08-28 11:59:00,
2013-08-28 07:02:00,73.9,70.5,28.79,NE,45,8.1,8.1,89,0.00,CLR,,0.00,WeatherDisplay:10.37,2013-08-28 12:02:00,
2013-08-28 07:03:00,73.9,70.5,28.79,East,90,6.9,6.9,89,0.00,CLR,,0.00,WeatherDisplay:10.37,2013-08-28 12:03:00,
2013-08-28 07:04:00,73.9,70.5,28.79,ENE,68,6.9,6.9,89,0.00,CLR,,0.00,WeatherDisplay:10.37,2013-08-28 12:04:00,
2013-08-28 07:07:00,73.9,70.5,28.79,ENE,68,6.7,6.7,89,0.00,CLR,,0.00,WeatherDisplay:10.37,2013-08-28 12:07:00,
2013-08-28 07:08:00,73.8,70.3,28.79,North,0,8.1,8.1,89,0.00,CLR,,0.00,WeatherDisplay:10.37,2013-08-28 12:08:00,
2013-08-28 07:09:00,73.9,70.5,28.79,NNE,22,9.2,9.2,89,0.00,CLR,,0.00,WeatherDisplay:10.37,2013-08-28 12:09:00,
2013-08-28 07:10:00,73.9,70.5,28.79,NE,45,6.0,6.0,89,0.00,CLR,,0.00,WeatherDisplay:10.37,2013-08-28 12:10:00,
2013-08-28 07:12:00,73.8,70.0,28.79,NE,45,6.9,6.9,88,0.00,CLR,,0.00,WeatherDisplay:10.37,2013-08-28 12:12:00,
2013-08-28 07:13:00,73.8,70.3,28.79,NE,45,5.8,5.8,89,0.00,CLR,,0.00,WeatherDisplay:10.37,2013-08-28 12:13:00,
2013-08-28 07:14:00,73.8,70.3,28.79,East,90,5.8,5.8,89,0.00,CLR,,0.00,WeatherDisplay:10.37,2013-08-28 12:14:00,
2013-08-28 07:15:00,73.8,70.3,28.79,ENE,68,5.8,5.8,89,0.00,CLR,,0.00,WeatherDisplay:10.37,2013-08-28 12:15:00,
2013-08-28 07:17:00,73.9,70.5,28.79,ESE,112,6.0,6.0,89,0.00,CLR,,0.00,WeatherDisplay:10.37,2013-08-28 12:17:00,
2013-08-28 07:18:00,73.8,70.0,28.79,NNE,22,5.8,5.8,88,0.00,CLR,,0.00,WeatherDisplay:10.37,2013-08-28 12:18:00,
2013-08-28 07:20:00,73.9,70.2,28.79,SE,135,8.1,8.1,88,0.00,CLR,,0.00,WeatherDisplay:10.37,2013-08-28 12:20:00,
2013-08-28 07:21:00,73.9,70.2,28.79,East,90,5.8,5.8,88,0.00,CLR,,0.00,WeatherDisplay:10.37,2013-08-28 12:21:00,
2013-08-28 07:22:00,73.9,70.2,28.79,NE,45,3.5,3.5,88,0.00,CLR,,0.00,WeatherDisplay:10.37,2013-08-28 12:22:00,
2013-08-28 07:24:00,73.9,70.2,28.79,ENE,68,4.6,4.6,88,0.00,CLR,,0.00,WeatherDisplay:10.37,2013-08-28 12:24:00,
2013-08-28 07:25:00,73.9,70.2,28.79,East,90,3.6,3.6,88,0.00,CLR,,0.00,WeatherDisplay:10.37,2013-08-28 12:25:00,
2013-08-28 07:26:00,73.9,70.2,28.79,NE,45,5.8,5.8,88,0.00,CLR,,0.00,WeatherDisplay:10.37,2013-08-28 12:26:00,
2013-08-28 07:27:00,73.9,70.2,28.79,NE,45,5.8,5.8,88,0.00,CLR,,0.00,WeatherDisplay:10.37,2013-08-28 12:27:00,
2013-08-28 07:29:00,73.9,70.2,28.79,ENE,68,3.8,3.8,88,0.00,CLR,,0.00,WeatherDisplay:10.37,2013-08-28 12:29:00,
2013-08-28 07:30:00,74.1,70.3,28.79,East,90,3.5,3.5,88,0.00,CLR,,0.00,WeatherDisplay:10.37,2013-08-28 12:30:00,
2013-08-28 07:31:00,73.9,70.2,28.79,NE,45,5.8,5.8,88,0.00,CLR,,0.00,WeatherDisplay:10.37,2013-08-28 12:31:00,
2013-08-28 07:32:00,74.1,70.3,28.79,NE,45,5.8,5.8,88,0.00,CLR,,0.00,WeatherDisplay:10.37,2013-08-28 12:32:00,
2013-08-28 07:33:00,74.1,70.3,28.79,NE,45,4.6,4.6,88,0.00,CLR,,0.00,WeatherDisplay:10.37,2013-08-28 12:33:00,
2013-08-28 07:34:00,73.9,70.2,28.79,ENE,68,6.0,6.0,88,0.00,CLR,,0.00,WeatherDisplay:10.37,2013-08-28 12:34:00,
2013-08-28 07:35:00,73.9,70.2,28.79,NE,45,5.8,5.8,88,0.00,CLR,,0.00,WeatherDisplay:10.37,2013-08-28 12:35:00,
2013-08-28 07:36:00,73.9,70.2,28.79,NE,45,5.8,5.8,88,0.00,CLR,,0.00,WeatherDisplay:10.37,2013-08-28 12:36:00,
2013-08-28 07:37:00,73.9,70.2,28.79,NE,45,5.8,5.8,88,0.00,CLR,,0.00,WeatherDisplay:10.37,2013-08-28 12:37:00,
2013-08-28 07:38:00,73.9,70.2,28.79,ESE,112,4.7,4.7,88,0.00,CLR,,0.00,WeatherDisplay:10.37,2013-08-28 12:38:00,
2013-08-28 07:39:00,73.9,70.2,28.79,East,90,4.6,4.6,88,0.00,CLR,,0.00,WeatherDisplay:10.37,2013-08-28 12:39:00,
2013-08-28 07:40:00,73.9,70.2,28.79,NNE,22,4.9,4.9,88,0.00,CLR,,0.00,WeatherDisplay:10.37,2013-08-28 12:40:00,
2013-08-28 07:42:00,73.9,70.2,28.79,NE,45,4.6,4.6,88,0.00,CLR,,0.00,WeatherDisplay:10.37,2013-08-28 12:42:00,
2013-08-28 07:43:00,73.9,70.2,28.79,East,90,5.8,5.8,88,0.00,CLR,,0.00,WeatherDisplay:10.37,2013-08-28 12:43:00,
2013-08-28 07:44:00,73.9,70.2,28.79,NE,45,5.8,5.8,88,0.00,CLR,,0.00,WeatherDisplay:10.37,2013-08-28 12:44:00,
2013-08-28 07:45:00,73.9,70.2,28.79,East,90,4.9,4.9,88,0.00,CLR,,0.00,WeatherDisplay:10.37,2013-08-28 12:45:00,
2013-08-28 07:47:00,73.9,70.2,28.79,NE,45,4.6,4.6,88,0.00,CLR,,0.00,WeatherDisplay:10.37,2013-08-28 12:47:00,
2013-08-28 07:48:00,73.9,70.2,28.79,ENE,68,8.1,8.1,88,0.00,CLR,,0.00,WeatherDisplay:10.37,2013-08-28 12:48:00,
2013-08-28 07:49:00,73.9,70.2,28.79,NE,45,8.1,8.1,88,0.00,CLR,,0.00,WeatherDisplay:10.37,2013-08-28 12:49:00,
2013-08-28 07:51:00,73.9,70.2,28.79,NE,45,5.8,5.8,88,0.00,CLR,,0.00,WeatherDisplay:10.37,2013-08-28 12:51:00,
2013-08-28 07:52:00,73.9,70.2,28.79,East,90,4.6,4.6,88,0.00,CLR,,0.00,WeatherDisplay:10.37,2013-08-28 12:52:00,
2013-08-28 07:53:00,73.9,70.2,28.79,East,90,3.5,3.5,88,0.00,CLR,,0.00,WeatherDisplay:10.37,2013-08-28 12:53:00,
2013-08-28 07:54:00,73.9,70.2,28.79,NE,45,3.5,3.5,88,0.00,CLR,,0.00,WeatherDisplay:10.37,2013-08-28 12:54:00,
2013-08-28 07:55:00,73.9,70.2,28.79,ESE,112,5.8,5.8,88,0.00,CLR,,0.00,WeatherDisplay:10.37,2013-08-28 12:55:00,
2013-08-28 07:56:00,73.9,70.2,28.79,East,90,4.6,4.6,88,0.00,CLR,,0.00,WeatherDisplay:10.37,2013-08-28 12:56:00,
2013-08-28 07:58:00,73.9,70.2,28.79,ENE,68,5.8,5.8,88,0.00,CLR,,0.00,WeatherDisplay:10.37,2013-08-28 12:58:00,
2013-08-28 07:59:00,73.9,70.2,28.79,ENE,68,5.8,5.8,88,0.00,CLR,,0.00,WeatherDisplay:10.37,2013-08-28 12:59:00,
2013-08-28 08:00:00,74.1,70.3,28.79,NE,45,4.0,4.0,88,0.00,CLR,,0.00,WeatherDisplay:10.37,2013-08-28 13:00:00,
2013-08-28 08:01:00,74.1,70.3,28.79,NE,45,4.9,4.9,88,0.00,CLR,,0.00,WeatherDisplay:10.37,2013-08-28 13:01:00,
2013-08-28 08:03:00,73.9,70.2,28.79,ENE,68,4.6,4.6,88,0.00,CLR,,0.00,WeatherDisplay:10.37,2013-08-28 13:03:00,
2013-08-28 08:04:00,73.9,70.2,28.79,NE,45,3.5,3.5,88,0.00,CLR,,0.00,WeatherDisplay:10.37,2013-08-28 13:04:00,
2013-08-28 08:05:00,74.1,70.3,28.79,ENE,68,3.5,3.5,88,0.00,CLR,,0.00,WeatherDisplay:10.37,2013-08-28 13:05:00,
2013-08-28 08:06:00,74.1,70.3,28.79,ESE,112,3.5,3.5,88,0.00,CLR,,0.00,WeatherDisplay:10.37,2013-08-28 13:06:00,
2013-08-28 08:08:00,73.9,70.2,28.79,ENE,68,5.8,5.8,88,0.00,CLR,,0.00,WeatherDisplay:10.37,2013-08-28 13:08:00,
2013-08-28 08:10:00,73.9,70.2,28.79,NE,45,4.6,4.6,88,0.00,CLR,,0.00,WeatherDisplay:10.37,2013-08-28 13:10:00,
2013-08-28 08:11:00,73.9,70.2,28.79,ENE,68,3.6,3.6,88,0.00,CLR,,0.00,WeatherDisplay:10.37,2013-08-28 13:11:00,
2013-08-28 08:12:00,73.9,70.2,28.79,ENE,68,6.0,6.0,88,0.00,CLR,,0.00,WeatherDisplay:10.37,2013-08-28 13:12:00,
2013-08-28 08:13:00,73.9,70.2,28.79,NE,45,5.8,6.0,88,0.00,CLR,,0.00,WeatherDisplay:10.37,2013-08-28 13:13:00,
2013-08-28 08:16:00,73.9,70.2,28.79,ENE,68,4.3,4.3,88,0.00,CLR,,0.00,WeatherDisplay:10.37,2013-08-28 13:16:00,
2013-08-28 08:17:00,73.9,70.2,28.79,NE,45,4.6,4.6,88,0.00,CLR,,0.00,WeatherDisplay:10.37,2013-08-28 13:17:00,
2013-08-28 08:18:00,73.9,70.2,28.79,ENE,68,4.6,4.6,88,0.00,CLR,,0.00,WeatherDisplay:10.37,2013-08-28 13:18:00,
2013-08-28 08:21:00,73.9,70.2,28.79,East,90,5.4,5.4,88,0.00,CLR,,0.00,WeatherDisplay:10.37,2013-08-28 13:21:00,
2013-08-28 08:22:00,73.9,70.2,28.79,ESE,112,5.8,5.8,88,0.00,CLR,,0.00,WeatherDisplay:10.37,2013-08-28 13:22:00,
2013-08-28 08:23:00,73.9,70.2,28.79,ENE,68,3.5,3.6,88,0.00,CLR,,0.00,WeatherDisplay:10.37,2013-08-28 13:23:00,
2013-08-28 08:26:00,74.1,70.3,28.76,NE,45,3.8,3.8,88,0.00,CLR,,0.00,WeatherDisplay:10.37,2013-08-28 13:26:00,
2013-08-28 08:27:00,74.1,70.3,28.76,NE,45,3.5,3.5,88,0.00,CLR,,0.00,WeatherDisplay:10.37,2013-08-28 13:27:00,
2013-08-28 08:28:00,74.1,70.3,28.76,NE,45,2.6,2.9,88,0.00,CLR,,0.00,WeatherDisplay:10.37,2013-08-28 13:28:00,
2013-08-28 08:29:00,74.1,70.3,28.76,NE,45,3.5,3.5,88,0.00,CLR,,0.00,WeatherDisplay:10.37,2013-08-28 13:29:00,
2013-08-28 08:31:00,74.1,70.3,28.76,NE,45,4.7,4.7,88,0.00,CLR,,0.00,WeatherDisplay:10.37,2013-08-28 13:31:00,
2013-08-28 08:32:00,74.1,70.3,28.76,ENE,68,6.9,6.9,88,0.00,CLR,,0.00,WeatherDisplay:10.37,2013-08-28 13:32:00,
2013-08-28 08:33:00,73.9,70.2,28.76,ENE,68,7.6,7.6,88,0.00,CLR,,0.00,WeatherDisplay:10.37,2013-08-28 13:33:00,
2013-08-28 08:34:00,73.9,70.2,28.76,NE,45,9.2,9.2,88,0.00,CLR,,0.00,WeatherDisplay:10.37,2013-08-28 13:34:00,
2013-08-28 08:36:00,73.9,70.2,28.76,ENE,68,5.8,5.8,88,0.00,CLR,,0.00,WeatherDisplay:10.37,2013-08-28 13:36:00,
2013-08-28 08:37:00,73.9,70.2,28.76,East,90,5.8,5.8,88,0.00,CLR,,0.00,WeatherDisplay:10.37,2013-08-28 13:37:00,
2013-08-28 08:38:00,73.9,70.2,28.76,ENE,68,3.5,3.5,88,0.00,CLR,,0.00,WeatherDisplay:10.37,2013-08-28 13:38:00,
2013-08-28 08:39:00,73.9,70.2,28.76,East,90,5.8,5.8,88,0.00,CLR,,0.00,WeatherDisplay:10.37,2013-08-28 13:39:00,
2013-08-28 08:41:00,73.9,70.2,28.79,ENE,68,3.5,3.5,88,0.00,CLR,,0.00,WeatherDisplay:10.37,2013-08-28 13:41:00,
2013-08-28 08:42:00,73.9,70.2,28.79,ENE,68,5.8,5.8,88,0.00,CLR,,0.00,WeatherDisplay:10.37,2013-08-28 13:42:00,
2013-08-28 08:43:00,73.9,70.2,28.79,East,90,5.4,5.4,88,0.00,CLR,,0.00,WeatherDisplay:10.37,2013-08-28 13:43:00,
2013-08-28 08:44:00,74.1,70.3,28.79,ENE,68,5.8,5.8,88,0.00,CLR,,0.00,WeatherDisplay:10.37,2013-08-28 13:44:00,
2013-08-28 08:47:00,74.1,70.3,28.79,East,90,3.5,3.5,88,0.00,CLR,,0.00,WeatherDisplay:10.37,2013-08-28 13:47:00,
2013-08-28 08:48:00,74.3,70.5,28.79,East,90,3.8,3.8,88,0.00,CLR,,0.00,WeatherDisplay:10.37,2013-08-28 13:48:00,
2013-08-28 08:49:00,74.3,70.5,28.79,NE,45,3.5,3.8,88,0.00,CLR,,0.00,WeatherDisplay:10.37,2013-08-28 13:49:00,
2013-08-28 08:52:00,74.5,70.4,28.79,NE,45,4.6,4.6,87,0.00,CLR,,0.00,WeatherDisplay:10.37,2013-08-28 13:52:00,
2013-08-28 08:53:00,74.7,70.5,28.79,East,90,3.6,3.6,87,0.00,CLR,,0.00,WeatherDisplay:10.37,2013-08-28 13:53:00,
2013-08-28 08:55:00,74.7,70.5,28.79,ENE,74,3.0,5.0,87,0.00,CLR,,0.00,WeatherDisplay:10.37,2013-08-28 13:55:00,
2013-08-28 08:56:00,74.7,70.2,28.79,East,90,4.6,4.6,86,0.00,CLR,,0.00,WeatherDisplay:10.37,2013-08-28 13:56:00,
2013-08-28 08:57:00,74.7,70.2,28.79,East,90,4.6,4.6,86,0.00,CLR,,0.00,WeatherDisplay:10.37,2013-08-28 13:57:00,
2013-08-28 08:58:00,74.8,70.4,28.79,ENE,68,5.8,5.8,86,0.00,CLR,,0.00,WeatherDisplay:10.37,2013-08-28 13:58:00,
2013-08-28 09:00:00,74.8,70.4,28.79,East,79,2.0,6.0,86,0.00,CLR,,0.00,WeatherDisplay:10.37,2013-08-28 14:00:00,
2013-08-28 09:01:00,75.0,70.2,28.79,ENE,68,4.6,4.6,85,0.00,CLR,,0.00,WeatherDisplay:10.37,2013-08-28 14:01:00,
2013-08-28 09:02:00,75.0,70.2,28.79,ENE,68,4.6,4.6,85,0.00,CLR,,0.00,WeatherDisplay:10.37,2013-08-28 14:02:00,
2013-08-28 09:03:00,75.2,70.4,28.79,SE,135,3.8,3.8,85,0.00,CLR,,0.00,WeatherDisplay:10.37,2013-08-28 14:03:00,
2013-08-28 09:04:00,75.0,69.9,28.79,East,90,5.8,5.8,84,0.00,CLR,,0.00,WeatherDisplay:10.37,2013-08-28 14:04:00,
2013-08-28 09:05:00,75.0,69.9,28.79,ENE,68,5.8,5.8,84,0.00,CLR,,0.00,WeatherDisplay:10.37,2013-08-28 14:05:00,
2013-08-28 09:06:00,75.0,69.9,28.79,ESE,112,5.8,5.8,84,0.00,CLR,,0.00,WeatherDisplay:10.37,2013-08-28 14:06:00,
2013-08-28 09:07:00,75.2,69.7,28.79,ENE,68,3.5,3.5,83,0.00,CLR,,0.00,WeatherDisplay:10.37,2013-08-28 14:07:00,
2013-08-28 09:08:00,75.2,70.0,28.79,ENE,68,2.9,2.9,84,0.00,CLR,,0.00,WeatherDisplay:10.37,2013-08-28 14:08:00,
2013-08-28 09:10:00,75.2,69.7,28.79,East,90,3.5,3.5,83,0.00,CLR,,0.00,WeatherDisplay:10.37,2013-08-28 14:10:00,
2013-08-28 09:11:00,75.2,69.7,28.79,East,90,3.5,3.5,83,0.00,CLR,,0.00,WeatherDisplay:10.37,2013-08-28 14:11:00,
2013-08-28 09:12:00,75.2,69.7,28.79,East,90,2.6,2.9,83,0.00,CLR,,0.00,WeatherDisplay:10.37,2013-08-28 14:12:00,
2013-08-28 09:14:00,75.2,69.7,28.79,ENE,68,3.5,3.5,83,0.00,CLR,,0.00,WeatherDisplay:10.37,2013-08-28 14:14:00,
2013-08-28 09:15:00,75.2,69.3,28.79,SSE,158,3.5,3.5,82,0.00,CLR,,0.00,WeatherDisplay:10.37,2013-08-28 14:15:00,
2013-08-28 09:16:00,75.2,69.3,28.79,ESE,112,7.4,7.4,82,0.00,CLR,,0.00,WeatherDisplay:10.37,2013-08-28 14:16:00,
2013-08-28 09:17:00,75.0,69.1,28.79,SE,135,6.9,6.9,82,0.00,CLR,,0.00,WeatherDisplay:10.37,2013-08-28 14:17:00,
2013-08-28 09:19:00,75.0,69.1,28.79,ESE,112,4.6,4.6,82,0.00,CLR,,0.00,WeatherDisplay:10.37,2013-08-28 14:19:00,
2013-08-28 09:20:00,75.0,69.1,28.79,NE,45,6.0,6.0,82,0.00,CLR,,0.00,WeatherDisplay:10.37,2013-08-28 14:20:00,
2013-08-28 09:21:00,75.0,69.1,28.79,NE,45,5.8,5.8,82,0.00,CLR,,0.00,WeatherDisplay:10.37,2013-08-28 14:21:00,
2013-08-28 09:22:00,75.0,68.8,28.79,East,90,8.1,8.1,81,0.00,CLR,,0.00,WeatherDisplay:10.37,2013-08-28 14:22:00,
2013-08-28 09:24:00,75.0,68.8,28.79,ESE,112,5.8,5.8,81,0.00,CLR,,0.00,WeatherDisplay:10.37,2013-08-28 14:24:00,
2013-08-28 09:26:00,75.2,69.0,28.79,East,90,5.8,5.8,81,0.00,CLR,,0.00,WeatherDisplay:10.37,2013-08-28 14:26:00,
2013-08-28 09:27:00,75.2,69.0,28.79,East,90,5.8,5.8,81,0.00,CLR,,0.00,WeatherDisplay:10.37,2013-08-28 14:27:00,
2013-08-28 09:28:00,75.2,69.0,28.79,East,90,5.8,5.8,81,0.00,CLR,,0.00,WeatherDisplay:10.37,2013-08-28 14:28:00,
2013-08-28 09:29:00,75.2,68.6,28.79,East,90,5.8,5.8,80,0.00,CLR,,0.00,WeatherDisplay:10.37,2013-08-28 14:29:00,
2013-08-28 09:31:00,75.2,68.6,28.79,ENE,68,8.1,8.1,80,0.00,CLR,,0.00,WeatherDisplay:10.37,2013-08-28 14:31:00,
2013-08-28 09:33:00,75.2,68.6,28.79,ESE,112,5.8,5.8,80,0.00,CLR,,0.00,WeatherDisplay:10.37,2013-08-28 14:33:00,
2013-08-28 09:34:00,75.4,68.8,28.79,NE,45,5.8,5.8,80,0.00,CLR,,0.00,WeatherDisplay:10.37,2013-08-28 14:34:00,
2013-08-28 09:35:00,75.4,68.8,28.79,East,90,3.5,3.5,80,0.00,CLR,,0.00,WeatherDisplay:10.37,2013-08-28 14:35:00,
2013-08-28 09:36:00,75.4,68.8,28.79,East,90,4.3,4.3,80,0.00,CLR,,0.00,WeatherDisplay:10.37,2013-08-28 14:36:00,
2013-08-28 09:38:00,75.6,69.0,28.79,SE,135,3.8,3.8,80,0.00,CLR,,0.00,WeatherDisplay:10.37,2013-08-28 14:38:00,
2013-08-28 09:39:00,75.7,69.1,28.82,NE,45,4.6,4.6,80,0.00,CLR,,0.00,WeatherDisplay:10.37,2013-08-28 14:39:00,
2013-08-28 09:40:00,75.7,69.1,28.82,SE,135,3.5,3.5,80,0.00,CLR,,0.00,WeatherDisplay:10.37,2013-08-28 14:40:00,
2013-08-28 09:41:00,75.9,68.9,28.82,ENE,68,5.9,5.9,79,0.00,CLR,,0.00,WeatherDisplay:10.37,2013-08-28 14:41:00,
2013-08-28 09:42:00,75.9,68.6,28.82,SE,135,6.9,6.9,78,0.00,CLR,,0.00,WeatherDisplay:10.37,2013-08-28 14:42:00,
2013-08-28 09:43:00,75.9,68.6,28.82,SE,135,5.8,5.8,78,0.00,CLR,,0.00,WeatherDisplay:10.37,2013-08-28 14:43:00,
2013-08-28 09:45:00,76.1,69.1,28.82,East,90,3.5,3.5,79,0.00,CLR,,0.00,WeatherDisplay:10.37,2013-08-28 14:45:00,
2013-08-28 09:46:00,76.3,68.9,28.82,ESE,112,4.7,4.7,78,0.00,CLR,,0.00,WeatherDisplay:10.37,2013-08-28 14:46:00,
2013-08-28 09:47:00,76.3,68.9,28.82,SE,135,8.1,8.1,78,0.00,CLR,,0.00,WeatherDisplay:10.37,2013-08-28 14:47:00,
2013-08-28 09:48:00,76.3,68.9,28.82,ESE,112,6.9,6.9,78,0.00,CLR,,0.00,WeatherDisplay:10.37,2013-08-28 14:48:00,
2013-08-28 09:50:00,76.3,68.9,28.82,ESE,112,5.8,5.8,78,0.00,CLR,,0.00,WeatherDisplay:10.37,2013-08-28 14:50:00,
2013-08-28 09:51:00,76.5,68.7,28.82,SSE,158,4.6,4.6,77,0.00,CLR,,0.00,WeatherDisplay:10.37,2013-08-28 14:51:00,
2013-08-28 09:52:00,76.3,68.2,28.82,SE,135,4.0,4.0,76,0.00,CLR,,0.00,WeatherDisplay:10.37,2013-08-28 14:52:00,
2013-08-28 09:53:00,76.3,68.2,28.82,ESE,112,4.6,4.6,76,0.00,CLR,,0.00,WeatherDisplay:10.37,2013-08-28 14:53:00,
2013-08-28 09:55:00,76.5,68.3,28.82,SE,135,5.8,5.8,76,0.00,CLR,,0.00,WeatherDisplay:10.37,2013-08-28 14:55:00,
2013-08-28 09:57:00,76.3,68.2,28.82,East,90,5.8,5.8,76,0.00,CLR,,0.00,WeatherDisplay:10.37,2013-08-28 14:57:00,
2013-08-28 09:58:00,76.3,67.8,28.82,ESE,112,5.8,5.8,75,0.00,CLR,,0.00,WeatherDisplay:10.37,2013-08-28 14:58:00,
2013-08-28 09:59:00,76.3,67.8,28.82,ESE,112,3.8,4.0,75,0.00,CLR,,0.00,WeatherDisplay:10.37,2013-08-28 14:59:00,
2013-08-28 10:01:00,76.3,67.8,28.82,NE,45,5.9,5.9,75,0.00,CLR,,0.00,WeatherDisplay:10.37,2013-08-28 15:01:00,
2013-08-28 10:02:00,76.1,67.6,28.82,SE,135,5.8,5.8,75,0.00,CLR,,0.00,WeatherDisplay:10.37,2013-08-28 15:02:00,
2013-08-28 10:03:00,76.1,67.6,28.82,South,180,5.8,5.8,75,0.00,CLR,,0.00,WeatherDisplay:10.37,2013-08-28 15:03:00,
2013-08-28 10:04:00,76.1,67.6,28.82,ESE,112,5.8,5.8,75,0.00,CLR,,0.00,WeatherDisplay:10.37,2013-08-28 15:04:00,
2013-08-28 10:06:00,76.1,67.6,28.82,ESE,112,5.8,5.8,75,0.00,CLR,,0.00,WeatherDisplay:10.37,2013-08-28 15:06:00,
2013-08-28 10:07:00,76.1,67.6,28.82,East,90,5.8,5.8,75,0.00,CLR,,0.00,WeatherDisplay:10.37,2013-08-28 15:07:00,
2013-08-28 10:09:00,76.3,68.2,28.82,ENE,68,3.5,3.5,76,0.00,CLR,,0.00,WeatherDisplay:10.37,2013-08-28 15:09:00,
2013-08-28 10:11:00,76.6,68.5,28.85,ENE,68,3.5,3.5,76,0.00,CLR,,0.00,WeatherDisplay:10.37,2013-08-28 15:11:00,
2013-08-28 10:12:00,76.8,68.7,28.85,SE,135,3.5,3.5,76,0.00,CLR,,0.00,WeatherDisplay:10.37,2013-08-28 15:12:00,
2013-08-28 10:14:00,76.8,68.3,28.85,ESE,112,4.7,4.7,75,0.00,CLR,,0.00,WeatherDisplay:10.37,2013-08-28 15:14:00,
2013-08-28 10:15:00,76.6,68.1,28.85,East,90,5.8,5.8,75,0.00,CLR,,0.00,WeatherDisplay:10.37,2013-08-28 15:15:00,
2013-08-28 10:16:00,76.8,68.3,28.85,NE,45,3.5,3.5,75,0.00,CLR,,0.00,WeatherDisplay:10.37,2013-08-28 15:16:00,
2013-08-28 10:17:00,76.8,68.3,28.85,ESE,112,3.5,3.5,75,0.00,CLR,,0.00,WeatherDisplay:10.37,2013-08-28 15:17:00,
2013-08-28 10:19:00,76.8,68.3,28.85,East,90,4.7,4.7,75,0.00,CLR,,0.00,WeatherDisplay:10.37,2013-08-28 15:19:00,
2013-08-28 10:20:00,76.6,68.1,28.85,ESE,112,4.6,4.6,75,0.00,CLR,,0.00,WeatherDisplay:10.37,2013-08-28 15:20:00,
2013-08-28 10:21:00,76.6,68.1,28.85,ESE,112,4.6,4.6,75,0.00,CLR,,0.00,WeatherDisplay:10.37,2013-08-28 15:21:00,
2013-08-28 10:23:00,76.5,67.6,28.85,NE,45,5.4,5.4,74,0.00,CLR,,0.00,WeatherDisplay:10.37,2013-08-28 15:23:00,
2013-08-28 10:24:00,76.5,67.6,28.85,East,90,5.8,5.8,74,0.00,CLR,,0.00,WeatherDisplay:10.37,2013-08-28 15:24:00,
2013-08-28 10:25:00,76.5,67.6,28.85,East,90,4.0,4.0,74,0.00,CLR,,0.00,WeatherDisplay:10.37,2013-08-28 15:25:00,
2013-08-28 10:26:00,76.5,67.6,28.85,East,90,4.6,4.6,74,0.00,CLR,,0.00,WeatherDisplay:10.37,2013-08-28 15:26:00,
2013-08-28 10:27:00,76.5,67.9,28.85,East,90,3.3,3.3,75,0.00,CLR,,0.00,WeatherDisplay:10.37,2013-08-28 15:27:00,
2013-08-28 10:28:00,76.5,67.9,28.85,ENE,68,3.5,3.8,75,0.00,CLR,,0.00,WeatherDisplay:10.37,2013-08-28 15:28:00,
2013-08-28 10:29:00,76.5,67.9,28.85,ESE,112,3.5,3.5,75,0.00,CLR,,0.00,WeatherDisplay:10.37,2013-08-28 15:29:00,
2013-08-28 10:30:00,76.6,67.7,28.85,East,90,3.5,3.5,74,0.00,CLR,,0.00,WeatherDisplay:10.37,2013-08-28 15:30:00,
2013-08-28 10:32:00,76.8,67.9,28.85,ENE,68,3.8,3.8,74,0.00,CLR,,0.00,WeatherDisplay:10.37,2013-08-28 15:32:00,
2013-08-28 10:33:00,76.8,67.5,28.85,East,90,4.9,4.9,73,0.00,CLR,,0.00,WeatherDisplay:10.37,2013-08-28 15:33:00,
2013-08-28 10:34:00,76.8,67.5,28.85,ENE,68,4.6,4.6,73,0.00,CLR,,0.00,WeatherDisplay:10.37,2013-08-28 15:34:00,
2013-08-28 10:35:00,77.2,67.9,28.85,NE,45,4.6,4.6,73,0.00,CLR,,0.00,WeatherDisplay:10.37,2013-08-28 15:35:00,
2013-08-28 10:37:00,77.4,68.0,28.85,ENE,68,4.6,4.6,73,0.00,CLR,,0.00,WeatherDisplay:10.37,2013-08-28 15:37:00,
2013-08-28 10:38:00,77.4,68.0,28.85,East,90,3.5,3.5,73,0.00,CLR,,0.00,WeatherDisplay:10.37,2013-08-28 15:38:00,
2013-08-28 10:39:00,77.5,67.8,28.85,East,90,5.8,5.8,72,0.00,CLR,,0.00,WeatherDisplay:10.37,2013-08-28 15:39:00,
2013-08-28 10:41:00,77.5,67.4,28.85,ESE,112,5.4,5.4,71,0.00,CLR,,0.00,WeatherDisplay:10.37,2013-08-28 15:41:00,
2013-08-28 10:42:00,77.4,67.2,28.85,SE,135,5.8,5.8,71,0.00,CLR,,0.00,WeatherDisplay:10.37,2013-08-28 15:42:00,
2013-08-28 10:43:00,77.5,67.8,28.85,East,90,3.8,3.8,72,0.00,CLR,,0.00,WeatherDisplay:10.37,2013-08-28 15:43:00,
2013-08-28 10:44:00,77.4,67.2,28.85,East,90,5.8,5.8,71,0.00,CLR,,0.00,WeatherDisplay:10.37,2013-08-28 15:44:00,
2013-08-28 10:47:00,77.4,67.2,28.85,East,90,4.6,4.6,71,0.00,CLR,,0.00,WeatherDisplay:10.37,2013-08-28 15:47:00,
2013-08-28 10:48:00,77.4,67.2,28.85,East,90,5.8,5.8,71,0.00,CLR,,0.00,WeatherDisplay:10.37,2013-08-28 15:48:00,
2013-08-28 10:49:00,77.4,67.2,28.85,ENE,68,4.6,4.6,71,0.00,CLR,,0.00,WeatherDisplay:10.37,2013-08-28 15:49:00,
2013-08-28 10:52:00,77.4,67.2,28.85,East,90,4.6,4.6,71,0.00,CLR,,0.00,WeatherDisplay:10.37,2013-08-28 15:52:00,
2013-08-28 10:53:00,77.2,67.0,28.85,East,90,4.7,4.7,71,0.00,CLR,,0.00,WeatherDisplay:10.37,2013-08-28 15:53:00,
2013-08-28 10:54:00,77.2,67.0,28.85,NE,45,5.8,5.8,71,0.00,CLR,,0.00,WeatherDisplay:10.37,2013-08-28 15:54:00,
2013-08-28 10:57:00,77.0,66.9,28.85,East,90,5.8,5.8,71,0.00,CLR,,0.00,WeatherDisplay:10.37,2013-08-28 15:57:00,
2013-08-28 10:58:00,77.2,67.5,28.85,NE,45,3.5,3.5,72,0.00,CLR,,0.00,WeatherDisplay:10.37,2013-08-28 15:58:00,
2013-08-28 10:59:00,77.4,67.6,28.85,NE,45,3.5,3.5,72,0.00,CLR,,0.00,WeatherDisplay:10.37,2013-08-28 15:59:00,
2013-08-28 11:00:00,77.5,67.8,28.85,East,90,3.5,3.5,72,0.00,CLR,,0.00,WeatherDisplay:10.37,2013-08-28 16:00:00,
2013-08-28 11:02:00,77.9,68.1,28.85,NNE,22,3.6,3.6,72,0.00,CLR,,0.00,WeatherDisplay:10.37,2013-08-28 16:02:00,
2013-08-28 11:03:00,77.9,67.7,28.85,NE,45,3.6,3.6,71,0.00,CLR,,0.00,WeatherDisplay:10.37,2013-08-28 16:03:00,
2013-08-28 11:04:00,77.9,67.7,28.85,NE,45,4.6,4.6,71,0.00,CLR,,0.00,WeatherDisplay:10.37,2013-08-28 16:04:00,
2013-08-28 11:05:00,77.9,67.7,28.85,NNE,22,4.6,4.6,71,0.00,CLR,,0.00,WeatherDisplay:10.37,2013-08-28 16:05:00,
2013-08-28 11:07:00,77.9,67.3,28.85,East,90,4.9,4.9,70,0.00,CLR,,0.00,WeatherDisplay:10.37,2013-08-28 16:07:00,
2013-08-28 11:08:00,77.7,67.2,28.85,East,90,6.9,6.9,70,0.00,CLR,,0.00,WeatherDisplay:10.37,2013-08-28 16:08:00,
2013-08-28 11:09:00,77.7,67.6,28.85,East,90,5.8,5.8,71,0.00,CLR,,0.00,WeatherDisplay:10.37,2013-08-28 16:09:00,
2013-08-28 11:10:00,77.7,67.6,28.85,ENE,71,3.0,7.0,71,0.00,CLR,,0.00,WeatherDisplay:10.37,2013-08-28 16:10:00,
2013-08-28 11:12:00,77.7,67.6,28.85,ENE,68,4.6,4.6,71,0.00,CLR,,0.00,WeatherDisplay:10.37,2013-08-28 16:12:00,
2013-08-28 11:14:00,78.1,67.9,28.85,East,90,2.9,2.9,71,0.00,CLR,,0.00,WeatherDisplay:10.37,2013-08-28 16:14:00,
2013-08-28 11:15:00,77.9,67.7,28.85,NE,45,4.6,4.6,71,0.00,CLR,,0.00,WeatherDisplay:10.37,2013-08-28 16:15:00,
2013-08-28 11:16:00,77.9,67.7,28.85,NE,45,4.6,4.6,71,0.00,CLR,,0.00,WeatherDisplay:10.37,2013-08-28 16:16:00,
2013-08-28 11:17:00,77.9,67.7,28.85,ENE,68,4.6,4.6,71,0.00,CLR,,0.00,WeatherDisplay:10.37,2013-08-28 16:17:00,
2013-08-28 11:19:00,78.3,68.5,28.85,ENE,68,3.5,3.5,72,0.00,CLR,,0.00,WeatherDisplay:10.37,2013-08-28 16:19:00,
2013-08-28 11:20:00,78.3,68.5,28.85,NNE,22,3.5,3.5,72,0.00,CLR,,0.00,WeatherDisplay:10.37,2013-08-28 16:20:00,
2013-08-28 11:21:00,78.4,68.7,28.85,ENE,68,3.5,3.5,72,0.00,CLR,,0.00,WeatherDisplay:10.37,2013-08-28 16:21:00,
2013-08-28 11:23:00,78.4,68.3,28.85,NE,45,6.2,6.2,71,0.00,CLR,,0.00,WeatherDisplay:10.37,2013-08-28 16:23:00,
2013-08-28 11:24:00,78.4,68.3,28.85,North,0,5.8,5.8,71,0.00,CLR,,0.00,WeatherDisplay:10.37,2013-08-28 16:24:00,
2013-08-28 11:26:00,78.1,67.5,28.85,ENE,68,5.8,5.8,70,0.00,CLR,,0.00,WeatherDisplay:10.37,2013-08-28 16:26:00,
2013-08-28 11:27:00,78.1,67.5,28.85,ENE,68,5.8,5.8,70,0.00,CLR,,0.00,WeatherDisplay:10.37,2013-08-28 16:27:00,
2013-08-28 11:28:00,78.3,67.7,28.85,East,90,4.6,4.6,70,0.00,CLR,,0.00,WeatherDisplay:10.37,2013-08-28 16:28:00,
2013-08-28 11:29:00,78.4,68.3,28.85,NE,45,4.6,4.6,71,0.00,CLR,,0.00,WeatherDisplay:10.37,2013-08-28 16:29:00,
2013-08-28 11:31:00,78.8,68.2,28.85,East,90,3.5,3.5,70,0.00,CLR,,0.00,WeatherDisplay:10.37,2013-08-28 16:31:00,
2013-08-28 11:32:00,79.2,68.5,28.85,ESE,112,2.9,2.9,70,0.00,CLR,,0.00,WeatherDisplay:10.37,2013-08-28 16:32:00,
2013-08-28 11:33:00,79.3,69.1,28.85,WSW,248,2.3,2.3,71,0.00,CLR,,0.00,WeatherDisplay:10.37,2013-08-28 16:33:00,
2013-08-28 11:34:00,79.5,68.9,28.85,East,90,2.9,2.9,70,0.00,CLR,,0.00,WeatherDisplay:10.37,2013-08-28 16:34:00,
2013-08-28 11:36:00,79.9,67.9,28.85,ESE,112,4.6,4.6,67,0.00,CLR,,0.00,WeatherDisplay:10.37,2013-08-28 16:36:00,
2013-08-28 11:37:00,80.1,68.5,28.85,ESE,112,4.6,4.6,68,0.00,CLR,,0.00,WeatherDisplay:10.37,2013-08-28 16:37:00,
2013-08-28 11:38:00,80.1,68.5,28.85,East,90,3.8,3.8,68,0.00,CLR,,0.00,WeatherDisplay:10.37,2013-08-28 16:38:00,
2013-08-28 11:39:00,79.9,68.4,28.85,SSE,158,3.5,3.5,68,0.00,CLR,,0.00,WeatherDisplay:10.37,2013-08-28 16:39:00,
2013-08-28 11:41:00,79.5,67.2,28.85,East,90,5.8,5.8,66,0.00,CLR,,0.00,WeatherDisplay:10.37,2013-08-28 16:41:00,
2013-08-28 11:43:00,79.7,67.3,28.85,SE,135,3.5,3.5,66,0.00,CLR,,0.00,WeatherDisplay:10.37,2013-08-28 16:43:00,
2013-08-28 11:44:00,79.7,67.3,28.85,SE,135,4.9,4.9,66,0.00,CLR,,0.00,WeatherDisplay:10.37,2013-08-28 16:44:00,
2013-08-28 11:47:00,79.7,67.3,28.85,SSE,158,4.6,4.6,66,0.00,CLR,,0.00,WeatherDisplay:10.37,2013-08-28 16:47:00,
2013-08-28 11:48:00,79.9,67.5,28.85,ESE,112,4.6,4.6,66,0.00,CLR,,0.00,WeatherDisplay:10.37,2013-08-28 16:48:00,
2013-08-28 11:49:00,80.1,67.7,28.85,ENE,68,4.6,4.6,66,0.00,CLR,,0.00,WeatherDisplay:10.37,2013-08-28 16:49:00,
2013-08-28 11:52:00,80.4,67.6,28.85,East,90,3.5,3.5,65,0.00,CLR,,0.00,WeatherDisplay:10.37,2013-08-28 16:52:00,
2013-08-28 11:53:00,80.4,67.6,28.85,ESE,112,4.6,4.6,65,0.00,CLR,,0.00,WeatherDisplay:10.37,2013-08-28 16:53:00,
2013-08-28 11:54:00,80.1,67.2,28.85,South,180,4.6,4.6,65,0.00,CLR,,0.00,WeatherDisplay:10.37,2013-08-28 16:54:00,
2013-08-28 11:55:00,80.1,67.2,28.85,SW,225,4.6,4.6,65,0.00,CLR,,0.00,WeatherDisplay:10.37,2013-08-28 16:55:00,
2013-08-28 11:57:00,80.2,67.4,28.85,East,90,3.5,3.5,65,0.00,CLR,,0.00,WeatherDisplay:10.37,2013-08-28 16:57:00,
2013-08-28 11:58:00,80.2,67.4,28.85,SE,135,3.5,3.5,65,0.00,CLR,,0.00,WeatherDisplay:10.37,2013-08-28 16:58:00,
2013-08-28 11:59:00,80.2,67.0,28.85,SE,135,4.6,4.6,64,0.00,CLR,,0.00,WeatherDisplay:10.37,2013-08-28 16:59:00,
2013-08-28 12:00:00,80.2,67.0,28.85,SE,135,4.6,4.6,64,0.00,CLR,,0.00,WeatherDisplay:10.37,2013-08-28 17:00:00,
2013-08-28 12:01:00,80.2,67.0,28.85,East,90,4.6,4.6,64,0.00,CLR,,0.00,WeatherDisplay:10.37,2013-08-28 17:01:00,
2013-08-28 12:02:00,80.4,67.6,28.85,NE,45,3.5,3.5,65,0.00,CLR,,0.00,WeatherDisplay:10.37,2013-08-28 17:02:00,
2013-08-28 12:03:00,80.6,67.7,28.85,ESE,112,3.1,3.1,65,0.00,CLR,,0.00,WeatherDisplay:10.37,2013-08-28 17:03:00,
2013-08-28 12:05:00,80.4,67.1,28.85,NNE,22,4.6,4.6,64,0.00,CLR,,0.00,WeatherDisplay:10.37,2013-08-28 17:05:00,
2013-08-28 12:07:00,80.4,67.1,28.85,ENE,68,4.6,4.6,64,0.00,CLR,,0.00,WeatherDisplay:10.37,2013-08-28 17:07:00,
2013-08-28 12:08:00,80.4,67.1,28.85,ENE,68,3.5,3.5,64,0.00,CLR,,0.00,WeatherDisplay:10.37,2013-08-28 17:08:00,
2013-08-28 12:10:00,81.0,67.6,28.85,ENE,68,2.3,2.3,64,0.00,CLR,,0.00,WeatherDisplay:10.37,2013-08-28 17:10:00,
2013-08-28 12:12:00,81.5,68.1,28.85,ESE,112,2.3,2.3,64,0.00,CLR,,0.00,WeatherDisplay:10.37,2013-08-28 17:12:00,
2013-08-28 12:13:00,81.9,68.9,28.85,WNW,292,1.6,0.0,65,0.00,CLR,,0.00,WeatherDisplay:10.37,2013-08-28 17:13:00,
2013-08-28 12:14:00,82.0,68.7,28.85,SSW,202,1.6,1.6,64,0.00,CLR,,0.00,WeatherDisplay:10.37,2013-08-28 17:14:00,
2013-08-28 12:15:00,82.0,68.7,28.85,SSW,202,1.2,1.2,64,0.00,CLR,,0.00,WeatherDisplay:10.37,2013-08-28 17:15:00,
2013-08-28 12:16:00,82.2,68.8,28.85,East,90,1.2,0.0,64,0.00,CLR,,0.00,WeatherDisplay:10.37,2013-08-28 17:16:00,
2013-08-28 12:17:00,82.4,69.0,28.85,ENE,68,4.6,4.6,64,0.00,CLR,,0.00,WeatherDisplay:10.37,2013-08-28 17:17:00,
2013-08-28 12:18:00,81.9,67.6,28.85,ESE,112,4.0,4.0,62,0.00,CLR,,0.00,WeatherDisplay:10.37,2013-08-28 17:18:00,
2013-08-28 12:19:00,81.9,67.6,28.85,East,90,5.4,5.4,62,0.00,CLR,,0.00,WeatherDisplay:10.37,2013-08-28 17:19:00,
2013-08-28 12:20:00,81.7,67.4,28.85,East,90,8.1,8.1,62,0.00,CLR,,0.00,WeatherDisplay:10.37,2013-08-28 17:20:00,
2013-08-28 12:21:00,81.5,67.2,28.85,East,90,8.1,8.1,62,0.00,CLR,,0.00,WeatherDisplay:10.37,2013-08-28 17:21:00,
2013-08-28 12:22:00,81.5,66.8,28.85,ENE,68,4.6,4.6,61,0.00,CLR,,0.00,WeatherDisplay:10.37,2013-08-28 17:22:00,
2013-08-28 12:23:00,81.5,66.8,28.85,East,90,4.6,4.6,61,0.00,CLR,,0.00,WeatherDisplay:10.37,2013-08-28 17:23:00,
2013-08-28 12:25:00,81.5,66.8,28.85,ENE,68,4.6,4.6,61,0.00,CLR,,0.00,WeatherDisplay:10.37,2013-08-28 17:25:00,
2013-08-28 12:26:00,81.5,67.2,28.85,ENE,68,4.6,4.6,62,0.00,CLR,,0.00,WeatherDisplay:10.37,2013-08-28 17:26:00,
2013-08-28 12:27:00,81.3,66.6,28.85,East,90,4.6,4.6,61,0.00,CLR,,0.00,WeatherDisplay:10.37,2013-08-28 17:27:00,
2013-08-28 12:28:00,81.5,67.2,28.85,East,90,4.6,4.6,62,0.00,CLR,,0.00,WeatherDisplay:10.37,2013-08-28 17:28:00,
2013-08-28 12:29:00,81.9,67.6,28.85,East,90,3.6,3.6,62,0.00,CLR,,0.00,WeatherDisplay:10.37,2013-08-28 17:29:00,
2013-08-28 12:30:00,82.2,67.4,28.85,East,90,3.5,3.5,61,0.00,CLR,,0.00,WeatherDisplay:10.37,2013-08-28 17:30:00,
2013-08-28 12:31:00,82.4,68.1,28.85,ESE,112,3.3,3.3,62,0.00,CLR,,0.00,WeatherDisplay:10.37,2013-08-28 17:31:00,
2013-08-28 12:32:00,81.9,67.1,28.85,ESE,112,5.8,5.8,61,0.00,CLR,,0.00,WeatherDisplay:10.37,2013-08-28 17:32:00,
2013-08-28 12:34:00,81.9,67.1,28.85,SE,135,5.8,5.8,61,0.00,CLR,,0.00,WeatherDisplay:10.37,2013-08-28 17:34:00,
2013-08-28 12:35:00,81.7,66.9,28.85,SSW,202,4.6,4.6,61,0.00,CLR,,0.00,WeatherDisplay:10.37,2013-08-28 17:35:00,
2013-08-28 12:36:00,81.7,66.9,28.85,ESE,112,4.6,4.6,61,0.00,CLR,,0.00,WeatherDisplay:10.37,2013-08-28 17:36:00,
2013-08-28 12:39:00,81.9,67.1,28.85,East,90,4.6,4.6,61,0.00,CLR,,0.00,WeatherDisplay:10.37,2013-08-28 17:39:00,
2013-08-28 12:41:00,81.7,66.9,28.85,NE,45,4.9,4.9,61,0.00,CLR,,0.00,WeatherDisplay:10.37,2013-08-28 17:41:00,
2013-08-28 12:44:00,82.0,67.7,28.85,East,90,2.3,2.3,62,0.00,CLR,,0.00,WeatherDisplay:10.37,2013-08-28 17:44:00,
2013-08-28 12:46:00,82.4,67.1,28.85,NE,45,3.6,3.6,60,0.00,CLR,,0.00,WeatherDisplay:10.37,2013-08-28 17:46:00,
2013-08-28 12:47:00,82.6,67.3,28.85,NE,45,4.6,4.6,60,0.00,CLR,,0.00,WeatherDisplay:10.37,2013-08-28 17:47:00,
2013-08-28 12:48:00,82.6,67.3,28.85,NE,45,4.6,4.6,60,0.00,CLR,,0.00,WeatherDisplay:10.37,2013-08-28 17:48:00,
2013-08-28 12:49:00,82.8,67.5,28.85,NE,45,3.5,3.5,60,0.00,CLR,,0.00,WeatherDisplay:10.37,2013-08-28 17:49:00,
2013-08-28 12:50:00,82.9,67.6,28.85,NNE,22,1.2,1.2,60,0.00,CLR,,0.00,WeatherDisplay:10.37,2013-08-28 17:50:00,
2013-08-28 12:51:00,83.5,68.6,28.85,NNE,22,1.2,0.0,61,0.00,CLR,,0.00,WeatherDisplay:10.37,2013-08-28 17:51:00,
2013-08-28 12:52:00,83.5,68.6,28.85,NNE,22,1.2,0.0,61,0.00,CLR,,0.00,WeatherDisplay:10.37,2013-08-28 17:52:00,
2013-08-28 12:53:00,83.5,68.6,28.85,ENE,68,2.9,0.0,61,0.00,CLR,,0.00,WeatherDisplay:10.37,2013-08-28 17:53:00,
2013-08-28 12:54:00,83.5,68.1,28.85,ENE,68,3.5,3.5,60,0.00,CLR,,0.00,WeatherDisplay:10.37,2013-08-28 17:54:00,
2013-08-28 12:55:00,83.5,68.1,28.85,ENE,68,2.3,2.3,60,0.00,CLR,,0.00,WeatherDisplay:10.37,2013-08-28 17:55:00,
2013-08-28 12:57:00,83.7,67.3,28.85,NW,315,2.9,2.9,58,0.00,CLR,,0.00,WeatherDisplay:10.37,2013-08-28 17:57:00,
2013-08-28 12:58:00,83.7,67.3,28.85,North,0,2.3,2.3,58,0.00,CLR,,0.00,WeatherDisplay:10.37,2013-08-28 17:58:00,
2013-08-28 13:00:00,84.0,68.1,28.85,North,0,2.3,2.3,59,0.00,CLR,,0.00,WeatherDisplay:10.37,2013-08-28 18:00:00,
2013-08-28 13:01:00,84.2,68.3,28.85,North,0,2.3,2.3,59,0.00,CLR,,0.00,WeatherDisplay:10.37,2013-08-28 18:01:00,
2013-08-28 13:02:00,84.4,68.5,28.85,North,0,2.3,2.3,59,0.00,CLR,,0.00,WeatherDisplay:10.37,2013-08-28 18:02:00,
2013-08-28 13:03:00,84.6,68.7,28.85,North,0,2.3,2.3,59,0.00,CLR,,0.00,WeatherDisplay:10.37,2013-08-28 18:03:00,
2013-08-28 13:04:00,84.4,68.0,28.85,ENE,68,2.4,2.4,58,0.00,CLR,,0.00,WeatherDisplay:10.37,2013-08-28 18:04:00,
2013-08-28 13:05:00,84.4,68.0,28.85,ENE,68,2.4,2.4,58,0.00,CLR,,0.00,WeatherDisplay:10.37,2013-08-28 18:05:00,
2013-08-28 13:07:00,84.6,67.6,28.85,East,90,2.3,2.4,57,0.00,CLR,,0.00,WeatherDisplay:10.37,2013-08-28 18:07:00,
2013-08-28 13:08:00,84.6,67.6,28.85,ENE,68,2.3,2.3,57,0.00,CLR,,0.00,WeatherDisplay:10.37,2013-08-28 18:08:00,
2013-08-28 13:10:00,84.4,67.5,28.85,East,90,4.6,4.6,57,0.00,CLR,,0.00,WeatherDisplay:10.37,2013-08-28 18:10:00,
2013-08-28 13:12:00,84.0,67.1,28.85,SSW,202,4.6,4.6,57,0.00,CLR,,0.00,WeatherDisplay:10.37,2013-08-28 18:12:00,
2013-08-28 13:13:00,84.0,67.1,28.85,NE,45,2.6,2.6,57,0.00,CLR,,0.00,WeatherDisplay:10.37,2013-08-28 18:13:00,
2013-08-28 13:14:00,84.0,67.1,28.85,East,90,3.5,3.5,57,0.00,CLR,,0.00,WeatherDisplay:10.37,2013-08-28 18:14:00,
2013-08-28 13:15:00,83.1,66.3,28.85,East,90,4.9,4.9,57,0.00,CLR,,0.00,WeatherDisplay:10.37,2013-08-28 18:15:00,
2013-08-28 13:16:00,83.1,66.3,28.85,East,90,6.9,6.9,57,0.00,CLR,,0.00,WeatherDisplay:10.37,2013-08-28 18:16:00,
2013-08-28 13:18:00,82.4,65.6,28.85,East,90,5.8,5.8,57,0.00,CLR,,0.00,WeatherDisplay:10.37,2013-08-28 18:18:00,
2013-08-28 13:20:00,83.1,66.8,28.85,NE,45,3.8,4.0,58,0.00,CLR,,0.00,WeatherDisplay:10.37,2013-08-28 18:20:00,
2013-08-28 13:21:00,83.3,66.5,28.85,NNE,22,3.5,3.5,57,0.00,CLR,,0.00,WeatherDisplay:10.37,2013-08-28 18:21:00,
2013-08-28 13:23:00,83.5,66.6,28.85,East,90,5.4,5.4,57,0.00,CLR,,0.00,WeatherDisplay:10.37,2013-08-28 18:23:00,
2013-08-28 13:25:00,83.3,66.5,28.85,East,90,5.8,5.8,57,0.00,CLR,,0.00,WeatherDisplay:10.37,2013-08-28 18:25:00,
2013-08-28 13:26:00,83.3,66.5,28.85,East,90,4.6,4.6,57,0.00,CLR,,0.00,WeatherDisplay:10.37,2013-08-28 18:26:00,
2013-08-28 13:27:00,83.3,66.5,28.85,SSE,158,4.6,4.6,57,0.00,CLR,,0.00,WeatherDisplay:10.37,2013-08-28 18:27:00,
2013-08-28 13:28:00,83.5,66.6,28.85,South,180,5.8,5.8,57,0.00,CLR,,0.00,WeatherDisplay:10.37,2013-08-28 18:28:00,
2013-08-28 13:30:00,83.5,66.1,28.85,SSE,158,5.6,5.6,56,0.00,CLR,,0.00,WeatherDisplay:10.37,2013-08-28 18:30:00,
2013-08-28 13:31:00,83.3,66.0,28.85,SE,135,6.4,6.4,56,0.00,CLR,,0.00,WeatherDisplay:10.37,2013-08-28 18:31:00,
2013-08-28 13:32:00,83.3,66.0,28.85,ENE,68,6.9,6.9,56,0.00,CLR,,0.00,WeatherDisplay:10.37,2013-08-28 18:32:00,
2013-08-28 13:33:00,83.3,67.0,28.85,East,90,8.1,8.1,58,0.00,CLR,,0.00,WeatherDisplay:10.37,2013-08-28 18:33:00,
2013-08-28 13:35:00,83.5,66.1,28.85,SSE,158,5.8,5.8,56,0.00,CLR,,0.00,WeatherDisplay:10.37,2013-08-28 18:35:00,
2013-08-28 13:36:00,83.7,66.3,28.85,SSW,202,3.6,3.6,56,0.00,CLR,,0.00,WeatherDisplay:10.37,2013-08-28 18:36:00,
2013-08-28 13:37:00,83.5,65.6,28.85,WSW,248,5.8,5.8,55,0.00,CLR,,0.00,WeatherDisplay:10.37,2013-08-28 18:37:00,
2013-08-28 13:38:00,84.0,66.1,28.85,SSW,202,5.8,5.8,55,0.00,CLR,,0.00,WeatherDisplay:10.37,2013-08-28 18:38:00,
2013-08-28 13:41:00,84.7,67.3,28.85,ENE,68,4.6,4.6,56,0.00,CLR,,0.00,WeatherDisplay:10.37,2013-08-28 18:41:00,
2013-08-28 13:42:00,84.7,67.3,28.85,NE,45,4.6,4.6,56,0.00,CLR,,0.00,WeatherDisplay:10.37,2013-08-28 18:42:00,
2013-08-28 13:43:00,84.7,66.3,28.85,ENE,68,4.6,4.6,54,0.00,CLR,,0.00,WeatherDisplay:10.37,2013-08-28 18:43:00,
2013-08-28 13:44:00,84.7,66.3,28.85,East,90,4.9,4.9,54,0.00,CLR,,0.00,WeatherDisplay:10.37,2013-08-28 18:44:00,
2013-08-28 13:46:00,83.8,67.0,28.85,SE,135,5.9,5.9,57,0.00,CLR,,0.00,WeatherDisplay:10.37,2013-08-28 18:46:00,
2013-08-28 13:47:00,83.3,66.0,28.85,SSE,158,5.8,5.8,56,0.00,CLR,,0.00,WeatherDisplay:10.37,2013-08-28 18:47:00,
2013-08-28 13:48:00,83.1,66.3,28.85,ENE,68,4.6,4.9,57,0.00,CLR,,0.00,WeatherDisplay:10.37,2013-08-28 18:48:00,
2013-08-28 13:49:00,83.1,66.3,28.85,NE,45,4.6,4.6,57,0.00,CLR,,0.00,WeatherDisplay:10.37,2013-08-28 18:49:00,
2013-08-28 13:51:00,82.8,66.0,28.85,NE,45,5.8,5.8,57,0.00,CLR,,0.00,WeatherDisplay:10.37,2013-08-28 18:51:00,
2013-08-28 13:52:00,82.6,66.3,28.85,East,90,5.8,5.8,58,0.00,CLR,,0.00,WeatherDisplay:10.37,2013-08-28 18:52:00,
2013-08-28 13:53:00,82.4,66.1,28.85,NE,45,4.6,4.6,58,0.00,CLR,,0.00,WeatherDisplay:10.37,2013-08-28 18:53:00,
2013-08-28 13:54:00,82.4,66.1,28.85,NE,45,4.6,4.6,58,0.00,CLR,,0.00,WeatherDisplay:10.37,2013-08-28 18:54:00,
2013-08-28 13:56:00,82.2,66.0,28.85,NE,45,5.8,5.8,58,0.00,CLR,,0.00,WeatherDisplay:10.37,2013-08-28 18:56:00,
2013-08-28 13:58:00,82.4,66.1,28.85,NE,45,4.9,4.9,58,0.00,CLR,,0.00,WeatherDisplay:10.37,2013-08-28 18:58:00,
2013-08-28 13:59:00,82.0,66.3,28.85,ENE,68,6.9,6.9,59,0.00,CLR,,0.00,WeatherDisplay:10.37,2013-08-28 18:59:00,
2013-08-28 14:01:00,81.7,66.0,28.85,East,90,5.8,5.8,59,0.00,CLR,,0.00,WeatherDisplay:10.37,2013-08-28 19:01:00,
2013-08-28 14:03:00,81.7,66.4,28.85,East,90,6.0,6.0,60,0.00,CLR,,0.00,WeatherDisplay:10.37,2013-08-28 19:03:00,
2013-08-28 14:04:00,82.6,66.3,28.85,East,90,5.8,5.8,58,0.00,CLR,,0.00,WeatherDisplay:10.37,2013-08-28 19:04:00,
2013-08-28 14:05:00,83.3,67.5,28.85,ESE,112,5.8,5.8,59,0.00,CLR,,0.00,WeatherDisplay:10.37,2013-08-28 19:05:00,
2013-08-28 14:06:00,84.0,68.1,28.85,SSE,158,4.6,4.6,59,0.00,CLR,,0.00,WeatherDisplay:10.37,2013-08-28 19:06:00,
2013-08-28 14:07:00,84.0,68.1,28.85,SSE,158,4.6,4.6,59,0.00,CLR,,0.00,WeatherDisplay:10.37,2013-08-28 19:07:00,
2013-08-28 14:09:00,84.2,67.3,28.85,SE,135,2.3,2.3,57,0.00,CLR,,0.00,WeatherDisplay:10.37,2013-08-28 19:09:00,
2013-08-28 14:10:00,85.5,68.5,28.85,NNE,22,2.0,2.4,57,0.00,CLR,,0.00,WeatherDisplay:10.37,2013-08-28 19:10:00,
2013-08-28 14:11:00,85.5,68.5,28.85,NNE,22,3.5,3.5,57,0.00,CLR,,0.00,WeatherDisplay:10.37,2013-08-28 19:11:00,
2013-08-28 14:12:00,85.5,68.5,28.85,ENE,68,3.5,3.5,57,0.00,CLR,,0.00,WeatherDisplay:10.37,2013-08-28 19:12:00,
2013-08-28 14:14:00,84.9,66.9,28.85,SW,225,4.9,4.9,55,0.00,CLR,,0.00,WeatherDisplay:10.37,2013-08-28 19:14:00,
2013-08-28 14:15:00,84.9,66.9,28.85,ESE,112,4.6,4.6,55,0.00,CLR,,0.00,WeatherDisplay:10.37,2013-08-28 19:15:00,
2013-08-28 14:16:00,84.9,66.9,28.85,ESE,112,3.5,3.5,55,0.00,CLR,,0.00,WeatherDisplay:10.37,2013-08-28 19:16:00,
2013-08-28 14:17:00,84.9,66.9,28.85,East,90,5.8,5.8,55,0.00,CLR,,0.00,WeatherDisplay:10.37,2013-08-28 19:17:00,
2013-08-28 14:20:00,82.8,66.0,28.85,NE,45,5.8,5.8,57,0.00,CLR,,0.00,WeatherDisplay:10.37,2013-08-28 19:20:00,
2013-08-28 14:21:00,82.6,65.3,28.85,NE,45,5.8,5.8,56,0.00,CLR,,0.00,WeatherDisplay:10.37,2013-08-28 19:21:00,
2013-08-28 14:22:00,82.9,65.6,28.85,ENE,68,5.8,5.8,56,0.00,CLR,,0.00,WeatherDisplay:10.37,2013-08-28 19:22:00,
2013-08-28 14:23:00,83.3,66.0,28.85,East,90,4.6,4.6,56,0.00,CLR,,0.00,WeatherDisplay:10.37,2013-08-28 19:23:00,
2013-08-28 14:25:00,84.7,67.8,28.85,East,90,3.5,3.5,57,0.00,CLR,,0.00,WeatherDisplay:10.37,2013-08-28 19:25:00,
2013-08-28 14:26:00,84.7,67.8,28.85,East,90,3.5,3.5,57,0.00,CLR,,0.00,WeatherDisplay:10.37,2013-08-28 19:26:00,
2013-08-28 14:27:00,85.1,67.1,28.85,South,180,4.6,4.6,55,0.00,CLR,,0.00,WeatherDisplay:10.37,2013-08-28 19:27:00,
2013-08-28 14:28:00,85.1,67.1,28.85,SSW,202,5.8,5.8,55,0.00,CLR,,0.00,WeatherDisplay:10.37,2013-08-28 19:28:00,
2013-08-28 14:31:00,86.2,67.0,28.85,ESE,112,4.6,4.6,53,0.00,CLR,,0.00,WeatherDisplay:10.37,2013-08-28 19:31:00,
2013-08-28 14:32:00,86.0,66.9,28.85,ESE,112,4.9,4.9,53,0.00,CLR,,0.00,WeatherDisplay:10.37,2013-08-28 19:32:00,
2013-08-28 14:33:00,86.0,66.9,28.85,ESE,112,6.9,6.9,53,0.00,CLR,,0.00,WeatherDisplay:10.37,2013-08-28 19:33:00,
2013-08-28 14:36:00,86.0,66.9,28.85,SE,135,5.8,5.8,53,0.00,CLR,,0.00,WeatherDisplay:10.37,2013-08-28 19:36:00,
2013-08-28 14:38:00,86.2,66.5,28.85,ENE,68,3.8,3.8,52,0.00,CLR,,0.00,WeatherDisplay:10.37,2013-08-28 19:38:00,
2013-08-28 14:41:00,84.6,65.0,28.85,East,90,4.6,4.6,52,0.00,CLR,,0.00,WeatherDisplay:10.37,2013-08-28 19:41:00,
2013-08-28 14:43:00,84.7,65.7,28.85,SE,135,3.5,3.5,53,0.00,CLR,,0.00,WeatherDisplay:10.37,2013-08-28 19:43:00,
2013-08-28 14:46:00,85.3,66.8,28.85,East,90,3.3,3.3,54,0.00,CLR,,0.00,WeatherDisplay:10.37,2013-08-28 19:46:00,
2013-08-28 14:48:00,86.0,67.4,28.85,SE,135,3.5,3.5,54,0.00,CLR,,0.00,WeatherDisplay:10.37,2013-08-28 19:48:00,
2013-08-28 14:49:00,86.0,67.4,28.85,ENE,68,4.7,4.7,54,0.00,CLR,,0.00,WeatherDisplay:10.37,2013-08-28 19:49:00,
2013-08-28 14:51:00,86.5,66.8,28.85,ENE,68,4.6,4.6,52,0.00,CLR,,0.00,WeatherDisplay:10.37,2013-08-28 19:51:00,
2013-08-28 14:53:00,87.1,67.3,28.85,NNE,22,3.6,3.6,52,0.00,CLR,,0.00,WeatherDisplay:10.37,2013-08-28 19:53:00,
2013-08-28 14:54:00,87.1,67.3,28.85,North,0,5.4,5.4,52,0.00,CLR,,0.00,WeatherDisplay:10.37,2013-08-28 19:54:00,
2013-08-28 14:55:00,87.1,66.8,28.85,NNE,22,5.8,5.8,51,0.00,CLR,,0.00,WeatherDisplay:10.37,2013-08-28 19:55:00,
2013-08-28 14:56:00,87.1,67.3,28.85,NNE,22,3.5,3.5,52,0.00,CLR,,0.00,WeatherDisplay:10.37,2013-08-28 19:56:00,
2013-08-28 14:58:00,86.0,65.8,28.85,NNE,22,4.6,4.6,51,0.00,CLR,,0.00,WeatherDisplay:10.37,2013-08-28 19:58:00,
2013-08-28 14:59:00,85.6,65.4,28.85,ENE,68,3.5,3.5,51,0.00,CLR,,0.00,WeatherDisplay:10.37,2013-08-28 19:59:00,
2013-08-28 15:01:00,85.6,65.4,28.85,NNE,22,5.8,5.8,51,0.00,CLR,,0.00,WeatherDisplay:10.37,2013-08-28 20:01:00,
2013-08-28 15:03:00,86.0,65.8,28.85,ENE,68,5.8,5.8,51,0.00,CLR,,0.00,WeatherDisplay:10.37,2013-08-28 20:03:00,
2013-08-28 15:04:00,86.0,65.8,28.85,NNE,22,4.6,4.6,51,0.00,CLR,,0.00,WeatherDisplay:10.37,2013-08-28 20:04:00,
2013-08-28 15:06:00,86.4,66.1,28.85,NE,45,3.5,3.6,51,0.00,CLR,,0.00,WeatherDisplay:10.37,2013-08-28 20:06:00,
2013-08-28 15:07:00,86.5,66.8,28.85,ESE,112,4.6,4.6,52,0.00,CLR,,0.00,WeatherDisplay:10.37,2013-08-28 20:07:00,
2013-08-28 15:08:00,86.5,66.8,28.85,North,0,3.5,3.5,52,0.00,CLR,,0.00,WeatherDisplay:10.37,2013-08-28 20:08:00,
2013-08-28 15:09:00,86.5,66.8,28.85,NE,45,3.5,3.5,52,0.00,CLR,,0.00,WeatherDisplay:10.37,2013-08-28 20:09:00,
2013-08-28 15:11:00,86.2,67.0,28.82,NNE,22,5.8,5.8,53,0.00,CLR,,0.00,WeatherDisplay:10.37,2013-08-28 20:11:00,
2013-08-28 15:12:00,86.2,67.0,28.82,NNE,22,5.8,5.8,53,0.00,CLR,,0.00,WeatherDisplay:10.37,2013-08-28 20:12:00,
2013-08-28 15:13:00,85.6,65.4,28.82,NE,45,4.9,4.9,51,0.00,CLR,,0.00,WeatherDisplay:10.37,2013-08-28 20:13:00,
2013-08-28 15:14:00,85.5,65.3,28.82,ENE,68,5.8,5.8,51,0.00,CLR,,0.00,WeatherDisplay:10.37,2013-08-28 20:14:00,
2013-08-28 15:15:00,85.5,65.8,28.82,ENE,68,5.8,5.8,52,0.00,CLR,,0.00,WeatherDisplay:10.37,2013-08-28 20:15:00,
2013-08-28 15:16:00,85.5,65.8,28.82,North,0,3.5,3.5,52,0.00,CLR,,0.00,WeatherDisplay:10.37,2013-08-28 20:16:00,
2013-08-28 15:17:00,85.5,65.8,28.82,ENE,68,3.5,3.5,52,0.00,CLR,,0.00,WeatherDisplay:10.37,2013-08-28 20:17:00,
2013-08-28 15:18:00,85.5,65.8,28.82,ENE,68,4.6,4.6,52,0.00,CLR,,0.00,WeatherDisplay:10.37,2013-08-28 20:18:00,
2013-08-28 15:19:00,85.6,65.4,28.82,ENE,68,4.6,4.6,51,0.00,CLR,,0.00,WeatherDisplay:10.37,2013-08-28 20:19:00,
2013-08-28 15:20:00,86.0,65.8,28.82,ENE,68,3.5,3.5,51,0.00,CLR,,0.00,WeatherDisplay:10.37,2013-08-28 20:20:00,
2013-08-28 15:21:00,86.0,65.8,28.82,ENE,68,4.6,4.6,51,0.00,CLR,,0.00,WeatherDisplay:10.37,2013-08-28 20:21:00,
2013-08-28 15:22:00,86.0,65.8,28.82,SE,135,5.8,5.8,51,0.00,CLR,,0.00,WeatherDisplay:10.37,2013-08-28 20:22:00,
2013-08-28 15:23:00,85.5,65.8,28.82,ESE,112,4.6,4.6,52,0.00,CLR,,0.00,WeatherDisplay:10.37,2013-08-28 20:23:00,
2013-08-28 15:24:00,85.5,65.8,28.82,ESE,112,4.6,4.6,52,0.00,CLR,,0.00,WeatherDisplay:10.37,2013-08-28 20:24:00,
2013-08-28 15:25:00,85.3,65.7,28.82,SE,135,4.6,4.6,52,0.00,CLR,,0.00,WeatherDisplay:10.37,2013-08-28 20:25:00,
2013-08-28 15:26:00,85.1,66.0,28.82,ESE,112,6.9,6.9,53,0.00,CLR,,0.00,WeatherDisplay:10.37,2013-08-28 20:26:00,
2013-08-28 15:27:00,85.1,66.0,28.82,ESE,112,6.9,6.9,53,0.00,CLR,,0.00,WeatherDisplay:10.37,2013-08-28 20:27:00,
2013-08-28 15:29:00,85.3,66.2,28.82,East,90,4.6,4.6,53,0.00,CLR,,0.00,WeatherDisplay:10.37,2013-08-28 20:29:00,
2013-08-28 15:30:00,85.3,66.2,28.82,ESE,112,6.9,6.9,53,0.00,CLR,,0.00,WeatherDisplay:10.37,2013-08-28 20:30:00,
2013-08-28 15:31:00,85.1,66.0,28.82,ESE,112,5.8,5.8,53,0.00,CLR,,0.00,WeatherDisplay:10.37,2013-08-28 20:31:00,
2013-08-28 15:32:00,85.1,66.0,28.82,SE,135,5.8,5.8,53,0.00,CLR,,0.00,WeatherDisplay:10.37,2013-08-28 20:32:00,
2013-08-28 15:34:00,85.1,66.0,28.82,East,90,4.6,4.6,53,0.00,CLR,,0.00,WeatherDisplay:10.37,2013-08-28 20:34:00,
2013-08-28 15:36:00,85.5,66.4,28.82,East,90,3.5,3.6,53,0.00,CLR,,0.00,WeatherDisplay:10.37,2013-08-28 20:36:00,
2013-08-28 15:37:00,85.8,66.7,28.82,East,90,3.8,3.8,53,0.00,CLR,,0.00,WeatherDisplay:10.37,2013-08-28 20:37:00,
2013-08-28 15:39:00,86.4,66.7,28.82,WSW,248,2.3,2.3,52,0.00,CLR,,0.00,WeatherDisplay:10.37,2013-08-28 20:39:00,
2013-08-28 15:41:00,86.7,67.0,28.82,ENE,68,2.3,2.4,52,0.00,CLR,,0.00,WeatherDisplay:10.37,2013-08-28 20:41:00,
2013-08-28 15:42:00,86.7,67.0,28.82,ENE,68,2.3,2.4,52,0.00,CLR,,0.00,WeatherDisplay:10.37,2013-08-28 20:42:00,
2013-08-28 15:43:00,86.7,67.0,28.82,ENE,68,1.4,2.0,52,0.00,CLR,,0.00,WeatherDisplay:10.37,2013-08-28 20:43:00,
2013-08-28 15:44:00,87.1,67.3,28.82,SE,135,3.5,3.5,52,0.00,CLR,,0.00,WeatherDisplay:10.37,2013-08-28 20:44:00,
2013-08-28 15:47:00,87.3,66.4,28.82,East,90,3.5,3.5,50,0.00,CLR,,0.00,WeatherDisplay:10.37,2013-08-28 20:47:00,
2013-08-28 15:48:00,87.4,67.1,28.82,ENE,68,2.9,2.9,51,0.00,CLR,,0.00,WeatherDisplay:10.37,2013-08-28 20:48:00,
2013-08-28 15:49:00,87.4,65.9,28.82,ESE,112,4.3,4.3,49,0.00,CLR,,0.00,WeatherDisplay:10.37,2013-08-28 20:49:00,
2013-08-28 15:52:00,86.9,66.0,28.82,SSE,158,3.5,3.5,50,0.00,CLR,,0.00,WeatherDisplay:10.37,2013-08-28 20:52:00,
2013-08-28 15:53:00,86.5,65.1,28.82,SSW,202,5.8,5.8,49,0.00,CLR,,0.00,WeatherDisplay:10.37,2013-08-28 20:53:00,
2013-08-28 15:54:00,86.4,64.9,28.82,South,180,5.6,5.6,49,0.00,CLR,,0.00,WeatherDisplay:10.37,2013-08-28 20:54:00,
2013-08-28 15:55:00,86.4,64.9,28.82,SSW,202,5.8,5.8,49,0.00,CLR,,0.00,WeatherDisplay:10.37,2013-08-28 20:55:00,
2013-08-28 15:57:00,87.1,66.2,28.82,SW,225,2.3,2.3,50,0.00,CLR,,0.00,WeatherDisplay:10.37,2013-08-28 20:57:00,
2013-08-28 15:58:00,87.1,66.2,28.82,NW,315,3.5,3.5,50,0.00,CLR,,0.00,WeatherDisplay:10.37,2013-08-28 20:58:00,
2013-08-28 15:59:00,87.3,66.4,28.82,South,180,3.1,3.1,50,0.00,CLR,,0.00,WeatherDisplay:10.37,2013-08-28 20:59:00,
2013-08-28 16:00:00,87.1,66.2,28.82,SE,135,6.2,6.2,50,0.00,CLR,,0.00,WeatherDisplay:10.37,2013-08-28 21:00:00,
2013-08-28 16:03:00,86.9,66.0,28.82,SE,135,3.5,3.5,50,0.00,CLR,,0.00,WeatherDisplay:10.37,2013-08-28 21:03:00,
2013-08-28 16:04:00,86.7,65.3,28.82,SSW,202,4.6,4.6,49,0.00,CLR,,0.00,WeatherDisplay:10.37,2013-08-28 21:04:00,
2013-08-28 16:05:00,86.2,65.4,28.82,SE,135,4.6,4.6,50,0.00,CLR,,0.00,WeatherDisplay:10.37,2013-08-28 21:05:00,
2013-08-28 16:08:00,86.5,65.7,28.82,East,90,4.6,4.6,50,0.00,CLR,,0.00,WeatherDisplay:10.37,2013-08-28 21:08:00,
2013-08-28 16:09:00,86.2,65.4,28.82,South,180,3.5,3.5,50,0.00,CLR,,0.00,WeatherDisplay:10.37,2013-08-28 21:09:00,
2013-08-28 16:10:00,85.8,65.0,28.85,South,180,4.6,4.6,50,0.00,CLR,,0.00,WeatherDisplay:10.37,2013-08-28 21:10:00,
2013-08-28 16:13:00,85.8,65.0,28.85,South,180,5.9,5.9,50,0.00,CLR,,0.00,WeatherDisplay:10.37,2013-08-28 21:13:00,
2013-08-28 16:14:00,85.6,65.4,28.85,SSE,158,6.9,6.9,51,0.00,CLR,,0.00,WeatherDisplay:10.37,2013-08-28 21:14:00,
2013-08-28 16:15:00,85.7,65.5,28.85,SSE,167,5.0,7.0,51,0.00,CLR,,0.00,WeatherDisplay:10.37,2013-08-28 21:15:00,
2013-08-28 16:16:00,85.5,65.3,28.85,SE,135,5.8,5.8,51,0.00,CLR,,0.00,WeatherDisplay:10.37,2013-08-28 21:16:00,
2013-08-28 16:17:00,85.3,65.1,28.85,SSW,202,4.6,4.6,51,0.00,CLR,,0.00,WeatherDisplay:10.37,2013-08-28 21:17:00,
2013-08-28 16:18:00,85.6,65.4,28.85,WNW,292,4.6,4.6,51,0.00,CLR,,0.00,WeatherDisplay:10.37,2013-08-28 21:18:00,
2013-08-28 16:19:00,86.0,65.2,28.85,SSE,158,5.8,5.8,50,0.00,CLR,,0.00,WeatherDisplay:10.37,2013-08-28 21:19:00,
2013-08-28 16:21:00,86.0,65.2,28.85,South,180,3.5,3.5,50,0.00,CLR,,0.00,WeatherDisplay:10.37,2013-08-28 21:21:00,
2013-08-28 16:23:00,85.8,65.6,28.85,SSE,158,2.3,2.3,51,0.00,CLR,,0.00,WeatherDisplay:10.37,2013-08-28 21:23:00,
2013-08-28 16:24:00,85.8,65.6,28.85,SSW,202,2.3,2.3,51,0.00,CLR,,0.00,WeatherDisplay:10.37,2013-08-28 21:24:00,
2013-08-28 16:26:00,86.5,66.3,28.85,North,0,2.0,2.0,51,0.00,CLR,,0.00,WeatherDisplay:10.37,2013-08-28 21:26:00,
2013-08-28 16:28:00,86.5,65.7,28.85,SSW,202,4.6,4.6,50,0.00,CLR,,0.00,WeatherDisplay:10.37,2013-08-28 21:28:00,
2013-08-28 16:29:00,86.4,65.5,28.85,SW,225,4.6,4.6,50,0.00,CLR,,0.00,WeatherDisplay:10.37,2013-08-28 21:29:00,
2013-08-28 16:30:00,86.7,65.9,28.85,WSW,248,3.5,3.5,50,0.00,CLR,,0.00,WeatherDisplay:10.37,2013-08-28 21:30:00,
2013-08-28 16:31:00,86.9,66.0,28.85,SSW,202,2.3,2.3,50,0.00,CLR,,0.00,WeatherDisplay:10.37,2013-08-28 21:31:00,
2013-08-28 16:33:00,87.1,66.2,28.85,SE,135,3.6,3.6,50,0.00,CLR,,0.00,WeatherDisplay:10.37,2013-08-28 21:33:00,
2013-08-28 16:34:00,86.9,66.0,28.85,ESE,112,3.5,3.5,50,0.00,CLR,,0.00,WeatherDisplay:10.37,2013-08-28 21:34:00,
2013-08-28 16:35:00,86.9,66.0,28.85,ESE,112,4.0,4.0,50,0.00,CLR,,0.00,WeatherDisplay:10.37,2013-08-28 21:35:00,
2013-08-28 16:36:00,86.7,65.9,28.85,SE,135,4.6,4.6,50,0.00,CLR,,0.00,WeatherDisplay:10.37,2013-08-28 21:36:00,
2013-08-28 16:38:00,86.0,65.2,28.85,SSE,158,6.2,6.2,50,0.00,CLR,,0.00,WeatherDisplay:10.37,2013-08-28 21:38:00,
2013-08-28 16:39:00,85.6,64.9,28.85,South,180,6.9,6.9,50,0.00,CLR,,0.00,WeatherDisplay:10.37,2013-08-28 21:39:00,
2013-08-28 16:40:00,86.0,65.2,28.82,South,180,4.6,4.6,50,0.00,CLR,,0.00,WeatherDisplay:10.37,2013-08-28 21:40:00,
2013-08-28 16:41:00,86.0,65.2,28.82,East,90,4.9,4.9,50,0.00,CLR,,0.00,WeatherDisplay:10.37,2013-08-28 21:41:00,
2013-08-28 16:44:00,85.8,65.6,28.82,ESE,112,6.9,6.9,51,0.00,CLR,,0.00,WeatherDisplay:10.37,2013-08-28 21:44:00,
2013-08-28 16:45:00,85.6,64.9,28.82,SE,135,6.9,6.9,50,0.00,CLR,,0.00,WeatherDisplay:10.37,2013-08-28 21:45:00,
2013-08-28 16:46:00,85.6,64.9,28.82,East,90,5.8,5.8,50,0.00,CLR,,0.00,WeatherDisplay:10.37,2013-08-28 21:46:00,
2013-08-28 16:49:00,85.6,64.3,28.82,SE,135,5.8,5.8,49,0.00,CLR,,0.00,WeatherDisplay:10.37,2013-08-28 21:49:00,
2013-08-28 16:50:00,85.8,65.0,28.82,East,90,2.9,2.9,50,0.00,CLR,,0.00,WeatherDisplay:10.37,2013-08-28 21:50:00,
2013-08-28 16:51:00,85.8,65.0,28.82,East,90,4.5,4.5,50,0.00,CLR,,0.00,WeatherDisplay:10.37,2013-08-28 21:51:00,
2013-08-28 16:52:00,85.6,64.9,28.82,ENE,68,4.6,4.6,50,0.00,CLR,,0.00,WeatherDisplay:10.37,2013-08-28 21:52:00,
2013-08-28 16:54:00,85.6,64.9,28.82,SSE,158,5.8,5.8,50,0.00,CLR,,0.00,WeatherDisplay:10.37,2013-08-28 21:54:00,
2013-08-28 16:55:00,85.5,64.7,28.85,ESE,112,5.8,5.8,50,0.00,CLR,,0.00,WeatherDisplay:10.37,2013-08-28 21:55:00,
2013-08-28 16:56:00,85.5,64.7,28.85,ENE,68,3.5,3.5,50,0.00,CLR,,0.00,WeatherDisplay:10.37,2013-08-28 21:56:00,
2013-08-28 16:57:00,85.5,64.7,28.85,ESE,112,4.6,4.6,50,0.00,CLR,,0.00,WeatherDisplay:10.37,2013-08-28 21:57:00,
2013-08-28 16:59:00,85.6,64.9,28.85,ESE,112,5.8,5.8,50,0.00,CLR,,0.00,WeatherDisplay:10.37,2013-08-28 21:59:00,
2013-08-28 17:01:00,85.6,65.4,28.85,East,90,5.4,5.4,51,0.00,CLR,,0.00,WeatherDisplay:10.37,2013-08-28 22:01:00,
2013-08-28 17:02:00,85.6,65.4,28.85,ESE,112,4.9,4.9,51,0.00,CLR,,0.00,WeatherDisplay:10.37,2013-08-28 22:02:00,
2013-08-28 17:04:00,85.5,65.3,28.85,East,90,4.6,4.6,51,0.00,CLR,,0.00,WeatherDisplay:10.37,2013-08-28 22:04:00,
2013-08-28 17:06:00,85.3,64.5,28.85,East,90,4.6,4.6,50,0.00,CLR,,0.00,WeatherDisplay:10.37,2013-08-28 22:06:00,
2013-08-28 17:07:00,85.5,65.3,28.85,East,90,4.0,4.0,51,0.00,CLR,,0.00,WeatherDisplay:10.37,2013-08-28 22:07:00,
2013-08-28 17:08:00,85.3,64.5,28.85,ESE,112,4.6,4.6,50,0.00,CLR,,0.00,WeatherDisplay:10.37,2013-08-28 22:08:00,
2013-08-28 17:10:00,85.3,65.1,28.82,ESE,112,2.3,2.4,51,0.00,CLR,,0.00,WeatherDisplay:10.37,2013-08-28 22:10:00,
2013-08-28 17:11:00,85.5,65.3,28.82,ESE,112,4.6,4.6,51,0.00,CLR,,0.00,WeatherDisplay:10.37,2013-08-28 22:11:00,
2013-08-28 17:12:00,85.5,65.3,28.82,East,90,4.6,4.6,51,0.00,CLR,,0.00,WeatherDisplay:10.37,2013-08-28 22:12:00,
2013-08-28 17:13:00,85.3,65.1,28.82,ESE,112,5.8,5.8,51,0.00,CLR,,0.00,WeatherDisplay:10.37,2013-08-28 22:13:00,
2013-08-28 17:15:00,85.1,64.9,28.82,East,90,4.0,4.0,51,0.00,CLR,,0.00,WeatherDisplay:10.37,2013-08-28 22:15:00,
2013-08-28 17:16:00,84.9,64.8,28.82,ESE,112,4.6,4.6,51,0.00,CLR,,0.00,WeatherDisplay:10.37,2013-08-28 22:16:00,
2013-08-28 17:17:00,84.9,64.8,28.82,NE,45,4.6,4.6,51,0.00,CLR,,0.00,WeatherDisplay:10.37,2013-08-28 22:17:00,
2013-08-28 17:18:00,84.9,64.8,28.82,NE,45,4.6,4.6,51,0.00,CLR,,0.00,WeatherDisplay:10.37,2013-08-28 22:18:00,
2013-08-28 17:19:00,84.9,64.8,28.82,NE,45,3.5,3.5,51,0.00,CLR,,0.00,WeatherDisplay:10.37,2013-08-28 22:19:00,
2013-08-28 17:20:00,84.7,64.6,28.82,NE,45,3.5,3.5,51,0.00,CLR,,0.00,WeatherDisplay:10.37,2013-08-28 22:20:00,
2013-08-28 17:21:00,84.4,64.8,28.82,NE,45,2.3,2.3,52,0.00,CLR,,0.00,WeatherDisplay:10.37,2013-08-28 22:21:00,
2013-08-28 17:22:00,84.2,64.7,28.82,East,90,3.5,3.5,52,0.00,CLR,,0.00,WeatherDisplay:10.37,2013-08-28 22:22:00,
2013-08-28 17:23:00,84.2,64.7,28.82,East,90,3.5,3.5,52,0.00,CLR,,0.00,WeatherDisplay:10.37,2013-08-28 22:23:00,
2013-08-28 17:24:00,83.8,64.9,28.82,SE,135,3.5,3.5,53,0.00,CLR,,0.00,WeatherDisplay:10.37,2013-08-28 22:24:00,
2013-08-28 17:25:00,83.7,64.7,28.82,SE,135,3.5,3.5,53,0.00,CLR,,0.00,WeatherDisplay:10.37,2013-08-28 22:25:00,
2013-08-28 17:26:00,83.8,64.9,28.82,East,90,2.3,0.0,53,0.00,CLR,,0.00,WeatherDisplay:10.37,2013-08-28 22:26:00,
2013-08-28 17:28:00,83.8,65.4,28.82,ESE,112,2.6,2.9,54,0.00,CLR,,0.00,WeatherDisplay:10.37,2013-08-28 22:28:00,
2013-08-28 17:29:00,83.8,65.4,28.82,SE,135,4.6,4.6,54,0.00,CLR,,0.00,WeatherDisplay:10.37,2013-08-28 22:29:00,
2013-08-28 17:30:00,84.0,65.6,28.82,South,180,2.3,2.3,54,0.00,CLR,,0.00,WeatherDisplay:10.37,2013-08-28 22:30:00,
2013-08-28 17:32:00,84.0,65.6,28.82,ESE,112,2.6,2.6,54,0.00,CLR,,0.00,WeatherDisplay:10.37,2013-08-28 22:32:00,
2013-08-28 17:33:00,83.8,65.4,28.82,SE,135,3.5,3.5,54,0.00,CLR,,0.00,WeatherDisplay:10.37,2013-08-28 22:33:00,
2013-08-28 17:34:00,83.8,65.4,28.82,SSE,158,3.5,3.5,54,0.00,CLR,,0.00,WeatherDisplay:10.37,2013-08-28 22:34:00,
2013-08-28 17:35:00,83.8,65.4,28.82,SSE,158,3.5,3.5,54,0.00,CLR,,0.00,WeatherDisplay:10.37,2013-08-28 22:35:00,
2013-08-28 17:37:00,83.8,65.9,28.82,SSE,158,3.5,3.5,55,0.00,CLR,,0.00,WeatherDisplay:10.37,2013-08-28 22:37:00,
2013-08-28 17:39:00,84.0,66.1,28.82,SSE,158,3.5,3.5,55,0.00,CLR,,0.00,WeatherDisplay:10.37,2013-08-28 22:39:00,
2013-08-28 17:40:00,83.8,65.9,28.82,ENE,68,3.5,3.5,55,0.00,CLR,,0.00,WeatherDisplay:10.37,2013-08-28 22:40:00,
2013-08-28 17:42:00,83.8,65.9,28.82,South,180,3.6,3.6,55,0.00,CLR,,0.00,WeatherDisplay:10.37,2013-08-28 22:42:00,
2013-08-28 17:44:00,83.8,65.9,28.82,SE,135,3.5,3.5,55,0.00,CLR,,0.00,WeatherDisplay:10.37,2013-08-28 22:44:00,
2013-08-28 17:45:00,83.8,65.9,28.82,SSE,158,3.5,3.5,55,0.00,CLR,,0.00,WeatherDisplay:10.37,2013-08-28 22:45:00,
2013-08-28 17:46:00,83.8,66.5,28.82,SE,135,2.4,2.4,56,0.00,CLR,,0.00,WeatherDisplay:10.37,2013-08-28 22:46:00,
2013-08-28 17:48:00,84.2,66.3,28.82,SE,135,2.3,2.3,55,0.00,CLR,,0.00,WeatherDisplay:10.37,2013-08-28 22:48:00,
2013-08-28 17:50:00,84.4,66.4,28.82,SE,135,2.9,2.9,55,0.00,CLR,,0.00,WeatherDisplay:10.37,2013-08-28 22:50:00,
2013-08-28 17:51:00,84.4,66.4,28.82,South,180,3.5,3.5,55,0.00,CLR,,0.00,WeatherDisplay:10.37,2013-08-28 22:51:00,
2013-08-28 17:53:00,84.4,65.9,28.82,SE,135,2.3,2.3,54,0.00,CLR,,0.00,WeatherDisplay:10.37,2013-08-28 22:53:00,
2013-08-28 17:56:00,84.4,65.9,28.85,ESE,112,3.5,3.5,54,0.00,CLR,,0.00,WeatherDisplay:10.37,2013-08-28 22:56:00,
2013-08-28 17:57:00,84.4,65.9,28.85,SSE,158,3.6,3.6,54,0.00,CLR,,0.00,WeatherDisplay:10.37,2013-08-28 22:57:00,
2013-08-28 17:58:00,84.4,65.4,28.85,South,180,5.4,5.4,53,0.00,CLR,,0.00,WeatherDisplay:10.37,2013-08-28 22:58:00,
2013-08-28 18:01:00,84.0,65.6,28.85,SSE,158,4.6,4.6,54,0.00,CLR,,0.00,WeatherDisplay:10.37,2013-08-28 23:01:00,
2013-08-28 18:02:00,84.0,65.6,28.85,SSE,158,4.6,4.6,54,0.00,CLR,,0.00,WeatherDisplay:10.37,2013-08-28 23:02:00,
2013-08-28 18:03:00,84.0,65.6,28.85,South,180,3.6,3.6,54,0.00,CLR,,0.00,WeatherDisplay:10.37,2013-08-28 23:03:00,
2013-08-28 18:04:00,83.8,65.9,28.85,SE,135,4.0,4.0,55,0.00,CLR,,0.00,WeatherDisplay:10.37,2013-08-28 23:04:00,
2013-08-28 18:06:00,83.8,66.5,28.85,South,180,5.8,5.8,56,0.00,CLR,,0.00,WeatherDisplay:10.37,2013-08-28 23:06:00,
2013-08-28 18:07:00,83.5,65.6,28.85,South,180,5.8,5.8,55,0.00,CLR,,0.00,WeatherDisplay:10.37,2013-08-28 23:07:00,
2013-08-28 18:08:00,83.7,66.3,28.85,ESE,112,5.8,5.8,56,0.00,CLR,,0.00,WeatherDisplay:10.37,2013-08-28 23:08:00,
2013-08-28 18:09:00,83.5,66.1,28.85,SE,135,3.5,3.5,56,0.00,CLR,,0.00,WeatherDisplay:10.37,2013-08-28 23:09:00,
2013-08-28 18:11:00,83.7,66.3,28.85,ESE,112,2.3,2.3,56,0.00,CLR,,0.00,WeatherDisplay:10.37,2013-08-28 23:11:00,
2013-08-28 18:12:00,83.7,66.3,28.85,South,180,2.4,2.4,56,0.00,CLR,,0.00,WeatherDisplay:10.37,2013-08-28 23:12:00,
2013-08-28 18:13:00,83.8,66.5,28.85,SSE,158,4.6,4.6,56,0.00,CLR,,0.00,WeatherDisplay:10.37,2013-08-28 23:13:00,
2013-08-28 18:14:00,83.7,66.3,28.85,SSE,158,4.6,4.6,56,0.00,CLR,,0.00,WeatherDisplay:10.37,2013-08-28 23:14:00,
2013-08-28 18:16:00,83.3,66.0,28.85,SSE,158,5.4,5.4,56,0.00,CLR,,0.00,WeatherDisplay:10.37,2013-08-28 23:16:00,
2013-08-28 18:17:00,83.3,66.0,28.85,SSE,158,5.8,5.8,56,0.00,CLR,,0.00,WeatherDisplay:10.37,2013-08-28 23:17:00,
2013-08-28 18:19:00,83.1,65.8,28.85,SSE,158,5.8,5.8,56,0.00,CLR,,0.00,WeatherDisplay:10.37,2013-08-28 23:19:00,
2013-08-28 18:20:00,82.9,66.1,28.85,WSW,248,4.6,4.6,57,0.00,CLR,,0.00,WeatherDisplay:10.37,2013-08-28 23:20:00,
2013-08-28 18:21:00,83.1,66.3,28.85,SSE,158,3.1,0.0,57,0.00,CLR,,0.00,WeatherDisplay:10.37,2013-08-28 23:21:00,
2013-08-28 18:22:00,83.1,66.3,28.85,South,180,3.5,3.5,57,0.00,CLR,,0.00,WeatherDisplay:10.37,2013-08-28 23:22:00,
2013-08-28 18:24:00,83.1,66.3,28.85,South,180,2.3,2.3,57,0.00,CLR,,0.00,WeatherDisplay:10.37,2013-08-28 23:24:00,
2013-08-28 18:25:00,83.1,66.3,28.85,SW,225,1.2,1.2,57,0.00,CLR,,0.00,WeatherDisplay:10.37,2013-08-28 23:25:00,
2013-08-28 18:26:00,83.3,66.5,28.85,SSE,158,1.2,1.2,57,0.00,CLR,,0.00,WeatherDisplay:10.37,2013-08-28 23:26:00,
2013-08-28 18:27:00,83.3,66.5,28.85,SSE,158,2.3,2.3,57,0.00,CLR,,0.00,WeatherDisplay:10.37,2013-08-28 23:27:00,
2013-08-28 18:28:00,83.3,66.5,28.85,SSE,158,2.3,2.3,57,0.00,CLR,,0.00,WeatherDisplay:10.37,2013-08-28 23:28:00,
2013-08-28 18:29:00,83.1,66.8,28.85,South,180,2.3,2.3,58,0.00,CLR,,0.00,WeatherDisplay:10.37,2013-08-28 23:29:00,
2013-08-28 18:30:00,83.3,67.0,28.85,SE,135,2.3,0.0,58,0.00,CLR,,0.00,WeatherDisplay:10.37,2013-08-28 23:30:00,
2013-08-28 18:31:00,83.3,67.0,28.85,SE,135,2.0,0.0,58,0.00,CLR,,0.00,WeatherDisplay:10.37,2013-08-28 23:31:00,
2013-08-28 18:32:00,83.5,67.1,28.85,South,180,2.3,2.3,58,0.00,CLR,,0.00,WeatherDisplay:10.37,2013-08-28 23:32:00,
2013-08-28 18:33:00,83.5,67.1,28.85,SSE,158,1.4,1.4,58,0.00,CLR,,0.00,WeatherDisplay:10.37,2013-08-28 23:33:00,
2013-08-28 18:34:00,83.5,67.1,28.85,SSE,158,1.2,1.2,58,0.00,CLR,,0.00,WeatherDisplay:10.37,2013-08-28 23:34:00,
2013-08-28 18:35:00,83.3,67.0,28.85,SSE,158,2.3,2.3,58,0.00,CLR,,0.00,WeatherDisplay:10.37,2013-08-28 23:35:00,
2013-08-28 18:37:00,83.3,67.0,28.85,SSW,202,1.2,1.2,58,0.00,CLR,,0.00,WeatherDisplay:10.37,2013-08-28 23:37:00,
2013-08-28 18:38:00,83.3,67.0,28.85,SSE,158,0.9,0.0,58,0.00,CLR,,0.00,WeatherDisplay:10.37,2013-08-28 23:38:00,
2013-08-28 18:39:00,83.3,67.0,28.85,SSE,158,1.2,1.2,58,0.00,CLR,,0.00,WeatherDisplay:10.37,2013-08-28 23:39:00,
2013-08-28 18:41:00,83.5,67.1,28.85,SSW,202,2.3,2.3,58,0.00,CLR,,0.00,WeatherDisplay:10.37,2013-08-28 23:41:00,
2013-08-28 18:42:00,83.5,67.1,28.85,WSW,248,1.2,1.2,58,0.00,CLR,,0.00,WeatherDisplay:10.37,2013-08-28 23:42:00,
2013-08-28 18:43:00,83.5,67.1,28.85,West,270,2.3,0.0,58,0.00,CLR,,0.00,WeatherDisplay:10.37,2013-08-28 23:43:00,
2013-08-28 18:45:00,83.5,67.1,28.85,SSE,158,1.2,0.0,58,0.00,CLR,,0.00,WeatherDisplay:10.37,2013-08-28 23:45:00,
2013-08-28 18:46:00,83.1,66.8,28.85,WSW,248,2.3,2.3,58,0.00,CLR,,0.00,WeatherDisplay:10.37,2013-08-28 23:46:00,
2013-08-28 18:47:00,83.1,66.8,28.85,WSW,248,1.2,0.0,58,0.00,CLR,,0.00,WeatherDisplay:10.37,2013-08-28 23:47:00,
2013-08-28 18:48:00,83.1,66.8,28.85,WSW,248,0.0,0.0,58,0.00,CLR,,0.00,WeatherDisplay:10.37,2013-08-28 23:48:00,
2013-08-28 18:50:00,82.9,66.6,28.85,South,180,1.2,0.0,58,0.00,CLR,,0.00,WeatherDisplay:10.37,2013-08-28 23:50:00,
2013-08-28 18:52:00,82.9,67.1,28.85,South,180,0.0,0.0,59,0.00,CLR,,0.00,WeatherDisplay:10.37,2013-08-28 23:52:00,
2013-08-28 18:53:00,82.8,67.0,28.85,South,180,0.0,0.0,59,0.00,CLR,,0.00,WeatherDisplay:10.37,2013-08-28 23:53:00,
2013-08-28 18:54:00,82.8,67.0,28.85,South,180,0.0,0.0,59,0.00,CLR,,0.00,WeatherDisplay:10.37,2013-08-28 23:54:00,
2013-08-28 18:55:00,82.6,66.8,28.85,South,180,0.0,0.0,59,0.00,CLR,,0.00,WeatherDisplay:10.37,2013-08-28 23:55:00,
2013-08-28 18:57:00,82.2,66.5,28.85,SW,225,0.0,0.0,59,0.00,CLR,,0.00,WeatherDisplay:10.37,2013-08-28 23:57:00,
2013-08-28 18:58:00,82.2,66.9,28.85,WSW,248,0.0,0.0,60,0.00,CLR,,0.00,WeatherDisplay:10.37,2013-08-28 23:58:00,
2013-08-28 18:59:00,82.0,66.8,28.85,WSW,248,0.0,0.0,60,0.00,CLR,,0.00,WeatherDisplay:10.37,2013-08-28 23:59:00,
2013-08-28 19:00:00,82.0,66.8,28.85,WSW,248,0.0,0.0,60,0.00,CLR,,0.00,WeatherDisplay:10.37,2013-08-29 00:00:00,
2013-08-28 19:02:00,81.9,66.6,28.85,WSW,248,0.0,0.0,60,0.00,CLR,,0.00,WeatherDisplay:10.37,2013-08-29 00:02:00,
2013-08-28 19:03:00,81.7,66.4,28.85,WSW,248,0.0,0.0,60,0.00,CLR,,0.00,WeatherDisplay:10.37,2013-08-29 00:03:00,
2013-08-28 19:04:00,81.7,66.4,28.85,WSW,248,0.0,0.0,60,0.00,CLR,,0.00,WeatherDisplay:10.37,2013-08-29 00:04:00,
2013-08-28 19:05:00,81.5,66.8,28.85,WSW,248,0.0,0.0,61,0.00,CLR,,0.00,WeatherDisplay:10.37,2013-08-29 00:05:00,
2013-08-28 19:06:00,81.5,66.8,28.85,WSW,248,0.0,0.0,61,0.00,CLR,,0.00,WeatherDisplay:10.37,2013-08-29 00:06:00,
2013-08-28 19:07:00,81.3,66.6,28.85,WSW,248,0.0,0.0,61,0.00,CLR,,0.00,WeatherDisplay:10.37,2013-08-29 00:07:00,
2013-08-28 19:09:00,81.1,66.9,28.85,WSW,248,0.0,0.0,62,0.00,CLR,,0.00,WeatherDisplay:10.37,2013-08-29 00:09:00,
2013-08-28 19:10:00,81.0,66.7,28.85,WSW,248,0.0,0.0,62,0.00,CLR,,0.00,WeatherDisplay:10.37,2013-08-29 00:10:00,
2013-08-28 19:11:00,81.0,66.7,28.85,WSW,248,0.0,0.0,62,0.00,CLR,,0.00,WeatherDisplay:10.37,2013-08-29 00:11:00,
2013-08-28 19:12:00,80.8,66.5,28.85,West,270,0.0,0.0,62,0.00,CLR,,0.00,WeatherDisplay:10.37,2013-08-29 00:12:00,
2013-08-28 19:14:00,80.6,66.4,28.85,West,270,0.0,0.0,62,0.00,CLR,,0.00,WeatherDisplay:10.37,2013-08-29 00:14:00,
2013-08-28 19:15:00,80.6,66.4,28.85,West,270,0.0,0.0,62,0.00,CLR,,0.00,WeatherDisplay:10.37,2013-08-29 00:15:00,
2013-08-28 19:16:00,80.4,67.1,28.85,West,270,0.0,0.0,64,0.00,CLR,,0.00,WeatherDisplay:10.37,2013-08-29 00:16:00,
2013-08-28 19:18:00,80.1,66.8,28.85,West,270,0.0,0.0,64,0.00,CLR,,0.00,WeatherDisplay:10.37,2013-08-29 00:18:00,
2013-08-28 19:19:00,79.9,67.1,28.85,West,270,0.0,0.0,65,0.00,CLR,,0.00,WeatherDisplay:10.37,2013-08-29 00:19:00,
2013-08-28 19:20:00,79.9,67.1,28.85,West,270,0.0,0.0,65,0.00,CLR,,0.00,WeatherDisplay:10.37,2013-08-29 00:20:00,
2013-08-28 19:22:00,79.5,67.2,28.85,West,270,0.0,0.0,66,0.00,CLR,,0.00,WeatherDisplay:10.37,2013-08-29 00:22:00,
2013-08-28 19:23:00,79.3,67.0,28.85,WNW,292,1.2,0.0,66,0.00,CLR,,0.00,WeatherDisplay:10.37,2013-08-29 00:23:00,
2013-08-28 19:24:00,79.2,67.3,28.85,WNW,292,1.2,1.2,67,0.00,CLR,,0.00,WeatherDisplay:10.37,2013-08-29 00:24:00,
2013-08-28 19:25:00,79.0,67.1,28.85,WNW,292,1.4,0.0,67,0.00,CLR,,0.00,WeatherDisplay:10.37,2013-08-29 00:25:00,
2013-08-28 19:27:00,78.8,66.9,28.85,WNW,292,1.2,1.2,67,0.00,CLR,,0.00,WeatherDisplay:10.37,2013-08-29 00:27:00,
2013-08-28 19:28:00,78.6,67.2,28.85,WNW,292,0.0,0.0,68,0.00,CLR,,0.00,WeatherDisplay:10.37,2013-08-29 00:28:00,
2013-08-28 19:30:00,78.4,67.4,28.85,WNW,292,0.0,0.0,69,0.00,CLR,,0.00,WeatherDisplay:10.37,2013-08-29 00:30:00,
2013-08-28 19:32:00,77.9,66.9,28.85,WNW,292,1.2,1.2,69,0.00,CLR,,0.00,WeatherDisplay:10.37,2013-08-29 00:32:00,
2013-08-28 19:33:00,77.9,67.3,28.85,WNW,292,1.2,0.0,70,0.00,CLR,,0.00,WeatherDisplay:10.37,2013-08-29 00:33:00,
2013-08-28 19:35:00,77.6,66.7,28.85,WNW,292,0.0,1.0,69,0.00,CLR,,0.00,WeatherDisplay:10.37,2013-08-29 00:35:00,
2013-08-28 19:37:00,77.2,66.6,28.85,WNW,292,2.3,2.3,70,0.00,CLR,,0.00,WeatherDisplay:10.37,2013-08-29 00:37:00,
2013-08-28 19:38:00,77.2,66.6,28.85,WNW,292,2.3,2.3,70,0.00,CLR,,0.00,WeatherDisplay:10.37,2013-08-29 00:38:00,
2013-08-28 19:40:00,76.8,67.1,28.85,West,270,0.0,0.0,72,0.00,CLR,,0.00,WeatherDisplay:10.37,2013-08-29 00:40:00,
2013-08-28 19:42:00,76.5,67.2,28.85,West,270,0.0,0.0,73,0.00,CLR,,0.00,WeatherDisplay:10.37,2013-08-29 00:42:00,
2013-08-28 19:43:00,76.3,67.4,28.85,West,270,0.0,0.0,74,0.00,CLR,,0.00,WeatherDisplay:10.37,2013-08-29 00:43:00,
2013-08-28 19:44:00,76.3,67.4,28.85,West,270,0.0,0.0,74,0.00,CLR,,0.00,WeatherDisplay:10.37,2013-08-29 00:44:00,
2013-08-28 19:45:00,76.3,67.4,28.85,West,270,0.0,0.0,74,0.00,CLR,,0.00,WeatherDisplay:10.37,2013-08-29 00:45:00,
2013-08-28 19:47:00,75.9,67.4,28.85,WNW,292,1.2,1.2,75,0.00,CLR,,0.00,WeatherDisplay:10.37,2013-08-29 00:47:00,
2013-08-28 19:48:00,75.7,66.9,28.85,WNW,292,2.3,2.3,74,0.00,CLR,,0.00,WeatherDisplay:10.37,2013-08-29 00:48:00,
2013-08-28 19:49:00,75.6,66.7,28.85,WNW,292,2.3,2.3,74,0.00,CLR,,0.00,WeatherDisplay:10.37,2013-08-29 00:49:00,
2013-08-28 19:51:00,75.6,67.1,28.85,West,270,1.4,1.4,75,0.00,CLR,,0.00,WeatherDisplay:10.37,2013-08-29 00:51:00,
2013-08-28 19:52:00,75.4,66.9,28.85,West,270,2.3,2.3,75,0.00,CLR,,0.00,WeatherDisplay:10.37,2013-08-29 00:52:00,
2013-08-28 19:53:00,75.2,67.1,28.85,West,270,1.2,0.0,76,0.00,CLR,,0.00,WeatherDisplay:10.37,2013-08-29 00:53:00,
2013-08-28 19:54:00,75.2,67.1,28.85,West,270,1.4,0.0,76,0.00,CLR,,0.00,WeatherDisplay:10.37,2013-08-29 00:54:00,
2013-08-28 19:56:00,75.0,67.3,28.85,WNW,292,1.4,1.4,77,0.00,CLR,,0.00,WeatherDisplay:10.37,2013-08-29 00:56:00,
2013-08-28 19:58:00,74.8,67.5,28.85,West,270,3.5,3.5,78,0.00,CLR,,0.00,WeatherDisplay:10.37,2013-08-29 00:58:00,
2013-08-28 19:59:00,74.8,67.9,28.85,WNW,292,2.3,2.3,79,0.00,CLR,,0.00,WeatherDisplay:10.37,2013-08-29 00:59:00,
2013-08-28 20:00:00,74.7,67.7,28.85,ESE,112,2.3,0.0,79,0.00,CLR,,0.00,WeatherDisplay:10.37,2013-08-29 01:00:00,
2013-08-28 20:01:00,74.5,67.5,28.85,ESE,112,1.2,0.0,79,0.00,CLR,,0.00,WeatherDisplay:10.37,2013-08-29 01:01:00,
2013-08-28 20:03:00,74.5,67.5,28.85,ESE,112,1.2,0.0,79,0.00,CLR,,0.00,WeatherDisplay:10.37,2013-08-29 01:03:00,
2013-08-28 20:04:00,74.3,67.7,28.85,ESE,112,1.2,0.0,80,0.00,CLR,,0.00,WeatherDisplay:10.37,2013-08-29 01:04:00,
2013-08-28 20:05:00,74.3,67.7,28.85,WNW,292,0.9,0.0,80,0.00,CLR,,0.00,WeatherDisplay:10.37,2013-08-29 01:05:00,
2013-08-28 20:06:00,74.3,67.7,28.85,WNW,292,1.2,0.0,80,0.00,CLR,,0.00,WeatherDisplay:10.37,2013-08-29 01:06:00,
2013-08-28 20:08:00,74.1,67.6,28.85,WNW,292,0.0,0.0,80,0.00,CLR,,0.00,WeatherDisplay:10.37,2013-08-29 01:08:00,
2013-08-28 20:09:00,74.1,67.6,28.85,West,270,1.2,0.0,80,0.00,CLR,,0.00,WeatherDisplay:10.37,2013-08-29 01:09:00,
2013-08-28 20:10:00,73.9,67.4,28.85,West,270,1.2,1.2,80,0.00,CLR,,0.00,WeatherDisplay:10.37,2013-08-29 01:10:00,
2013-08-28 20:11:00,73.9,67.4,28.85,West,270,0.0,0.0,80,0.00,CLR,,0.00,WeatherDisplay:10.37,2013-08-29 01:11:00,
2013-08-28 20:13:00,73.8,67.6,28.85,West,270,0.0,0.0,81,0.00,CLR,,0.00,WeatherDisplay:10.37,2013-08-29 01:13:00,
2013-08-28 20:14:00,73.6,67.4,28.85,West,270,0.0,0.0,81,0.00,CLR,,0.00,WeatherDisplay:10.37,2013-08-29 01:14:00,
2013-08-28 20:15:00,73.6,67.4,28.85,West,270,0.0,0.0,81,0.00,CLR,,0.00,WeatherDisplay:10.37,2013-08-29 01:15:00,
2013-08-28 20:16:00,73.4,67.2,28.85,West,270,0.0,0.0,81,0.00,CLR,,0.00,WeatherDisplay:10.37,2013-08-29 01:16:00,
2013-08-28 20:18:00,73.2,67.4,28.85,West,270,0.0,0.0,82,0.00,CLR,,0.00,WeatherDisplay:10.37,2013-08-29 01:18:00,
2013-08-28 20:19:00,73.2,67.4,28.85,West,270,0.0,0.0,82,0.00,CLR,,0.00,WeatherDisplay:10.37,2013-08-29 01:19:00,
2013-08-28 20:20:00,73.0,67.2,28.85,West,270,0.0,0.0,82,0.00,CLR,,0.00,WeatherDisplay:10.37,2013-08-29 01:20:00,
2013-08-28 20:21:00,73.0,66.9,28.85,WNW,292,2.0,2.0,81,0.00,CLR,,0.00,WeatherDisplay:10.37,2013-08-29 01:21:00,
2013-08-28 20:22:00,72.9,66.7,28.85,WNW,292,2.3,2.3,81,0.00,CLR,,0.00,WeatherDisplay:10.37,2013-08-29 01:22:00,
2013-08-28 20:23:00,72.9,67.0,28.85,WNW,292,2.3,2.3,82,0.00,CLR,,0.00,WeatherDisplay:10.37,2013-08-29 01:23:00,
2013-08-28 20:24:00,72.9,67.0,28.85,WNW,292,2.3,2.3,82,0.00,CLR,,0.00,WeatherDisplay:10.37,2013-08-29 01:24:00,
2013-08-28 20:25:00,72.7,66.9,28.85,WNW,292,2.3,2.3,82,0.00,CLR,,0.00,WeatherDisplay:10.37,2013-08-29 01:25:00,
2013-08-28 20:26:00,72.7,66.9,28.85,WNW,292,2.3,2.3,82,0.00,CLR,,0.00,WeatherDisplay:10.37,2013-08-29 01:26:00,
2013-08-28 20:27:00,72.7,67.2,28.85,WNW,292,2.3,2.3,83,0.00,CLR,,0.00,WeatherDisplay:10.37,2013-08-29 01:27:00,
2013-08-28 20:28:00,72.5,67.0,28.85,NW,315,2.4,2.4,83,0.00,CLR,,0.00,WeatherDisplay:10.37,2013-08-29 01:28:00,
2013-08-28 20:29:00,72.5,67.4,28.85,NW,315,2.3,2.3,84,0.00,CLR,,0.00,WeatherDisplay:10.37,2013-08-29 01:29:00,
2013-08-28 20:30:00,72.3,67.2,28.85,NW,315,2.3,2.3,84,0.00,CLR,,0.00,WeatherDisplay:10.37,2013-08-29 01:30:00,
2013-08-28 20:31:00,72.3,67.6,28.85,WNW,292,2.3,2.3,85,0.00,CLR,,0.00,WeatherDisplay:10.37,2013-08-29 01:31:00,
2013-08-28 20:33:00,72.1,67.4,28.85,NW,315,2.3,2.3,85,0.00,CLR,,0.00,WeatherDisplay:10.37,2013-08-29 01:33:00,
2013-08-28 20:34:00,72.1,67.4,28.85,NW,315,2.3,2.3,85,0.00,CLR,,0.00,WeatherDisplay:10.37,2013-08-29 01:34:00,
2013-08-28 20:35:00,72.1,67.4,28.85,NW,315,2.3,2.3,85,0.00,CLR,,0.00,WeatherDisplay:10.37,2013-08-29 01:35:00,
2013-08-28 20:36:00,72.0,67.5,28.85,North,0,2.3,2.3,86,0.00,CLR,,0.00,WeatherDisplay:10.37,2013-08-29 01:36:00,
2013-08-28 20:37:00,72.0,67.5,28.85,North,0,2.3,2.3,86,0.00,CLR,,0.00,WeatherDisplay:10.37,2013-08-29 01:37:00,
2013-08-28 20:38:00,72.0,67.5,28.85,North,0,2.3,2.3,86,0.00,CLR,,0.00,WeatherDisplay:10.37,2013-08-29 01:38:00,
2013-08-28 20:39:00,71.8,67.4,28.85,North,0,1.2,0.0,86,0.00,CLR,,0.00,WeatherDisplay:10.37,2013-08-29 01:39:00,
2013-08-28 20:40:00,71.8,67.4,28.85,North,0,1.2,0.0,86,0.00,CLR,,0.00,WeatherDisplay:10.37,2013-08-29 01:40:00,
2013-08-28 20:41:00,71.6,67.5,28.85,North,0,0.0,0.0,87,0.00,CLR,,0.00,WeatherDisplay:10.37,2013-08-29 01:41:00,
2013-08-28 20:43:00,71.6,67.2,28.85,North,0,0.0,0.0,86,0.00,CLR,,0.00,WeatherDisplay:10.37,2013-08-29 01:43:00,
2013-08-28 20:44:00,71.6,67.5,28.85,North,0,0.0,0.0,87,0.00,CLR,,0.00,WeatherDisplay:10.37,2013-08-29 01:44:00,
2013-08-28 20:45:00,71.6,67.5,28.85,North,0,0.0,0.0,87,0.00,CLR,,0.00,WeatherDisplay:10.37,2013-08-29 01:45:00,
2013-08-28 20:47:00,71.6,67.9,28.85,North,0,0.0,0.0,88,0.00,CLR,,0.00,WeatherDisplay:10.37,2013-08-29 01:47:00,
2013-08-28 20:48:00,71.4,67.7,28.85,North,0,0.0,0.0,88,0.00,CLR,,0.00,WeatherDisplay:10.37,2013-08-29 01:48:00,
2013-08-28 20:49:00,71.4,67.7,28.85,North,0,0.0,0.0,88,0.00,CLR,,0.00,WeatherDisplay:10.37,2013-08-29 01:49:00,
2013-08-28 20:50:00,71.4,67.7,28.85,North,0,0.0,0.0,88,0.00,CLR,,0.00,WeatherDisplay:10.37,2013-08-29 01:50:00,
2013-08-28 20:53:00,71.2,67.5,28.85,North,0,0.0,0.0,88,0.00,CLR,,0.00,WeatherDisplay:10.37,2013-08-29 01:53:00,
2013-08-28 20:54:00,71.2,67.5,28.85,North,0,0.0,0.0,88,0.00,CLR,,0.00,WeatherDisplay:10.37,2013-08-29 01:54:00,
2013-08-28 20:55:00,71.2,67.5,28.85,SSW,202,0.0,0.0,88,0.00,CLR,,0.00,WeatherDisplay:10.37,2013-08-29 01:55:00,
2013-08-28 20:58:00,71.2,67.5,28.85,SW,225,0.0,0.0,88,0.00,CLR,,0.00,WeatherDisplay:10.37,2013-08-29 01:58:00,
2013-08-28 20:59:00,71.2,67.5,28.85,SW,225,0.0,0.0,88,0.00,CLR,,0.00,WeatherDisplay:10.37,2013-08-29 01:59:00,
2013-08-28 21:00:00,71.2,67.8,28.85,SW,225,0.0,0.0,89,0.00,CLR,,0.00,WeatherDisplay:10.37,2013-08-29 02:00:00,
2013-08-28 21:01:00,71.2,67.8,28.85,SW,225,0.0,0.0,89,0.00,CLR,,0.00,WeatherDisplay:10.37,2013-08-29 02:01:00,
2013-08-28 21:03:00,71.2,67.8,28.85,SW,225,0.0,0.0,89,0.00,CLR,,0.00,WeatherDisplay:10.37,2013-08-29 02:03:00,
2013-08-28 21:04:00,71.2,67.8,28.85,SW,225,0.0,0.0,89,0.00,CLR,,0.00,WeatherDisplay:10.37,2013-08-29 02:04:00,
2013-08-28 21:05:00,71.2,67.8,28.85,SW,225,0.0,0.0,89,0.00,CLR,,0.00,WeatherDisplay:10.37,2013-08-29 02:05:00,
2013-08-28 21:06:00,71.2,67.8,28.85,SW,225,0.0,0.0,89,0.00,CLR,,0.00,WeatherDisplay:10.37,2013-08-29 02:06:00,
2013-08-28 21:09:00,71.2,67.8,28.85,SW,225,0.0,0.0,89,0.00,CLR,,0.00,WeatherDisplay:10.37,2013-08-29 02:09:00,
2013-08-28 21:10:00,71.2,67.8,28.85,SW,225,0.0,0.0,89,0.00,CLR,,0.00,WeatherDisplay:10.37,2013-08-29 02:10:00,
2013-08-28 21:11:00,71.2,67.8,28.85,SSE,158,2.4,2.4,89,0.00,CLR,,0.00,WeatherDisplay:10.37,2013-08-29 02:11:00,
2013-08-28 21:15:00,71.1,68.0,28.85,SE,135,0.0,0.9,90,0.00,CLR,,0.00,WeatherDisplay:10.37,2013-08-29 02:15:00,
2013-08-28 21:16:00,71.1,68.0,28.85,SE,135,0.0,0.0,90,0.00,CLR,,0.00,WeatherDisplay:10.37,2013-08-29 02:16:00,
2013-08-28 21:20:00,71.1,68.0,28.85,SE,135,0.0,0.0,90,0.00,CLR,,0.00,WeatherDisplay:10.37,2013-08-29 02:20:00,
2013-08-28 21:21:00,71.1,68.0,28.85,SE,135,0.0,0.0,90,0.00,CLR,,0.00,WeatherDisplay:10.37,2013-08-29 02:21:00,
2013-08-28 21:22:00,71.1,68.0,28.85,SE,135,0.0,0.0,90,0.00,CLR,,0.00,WeatherDisplay:10.37,2013-08-29 02:22:00,
2013-08-28 21:25:00,71.1,68.0,28.85,SE,135,0.0,0.0,90,0.00,CLR,,0.00,WeatherDisplay:10.37,2013-08-29 02:25:00,
2013-08-28 21:26:00,71.1,68.0,28.85,SE,135,0.0,0.0,90,0.00,CLR,,0.00,WeatherDisplay:10.37,2013-08-29 02:26:00,
2013-08-28 21:27:00,71.1,68.0,28.85,SE,135,2.4,0.0,90,0.00,CLR,,0.00,WeatherDisplay:10.37,2013-08-29 02:27:00,
2013-08-28 21:28:00,71.1,68.0,28.85,SE,135,2.3,2.3,90,0.00,CLR,,0.00,WeatherDisplay:10.37,2013-08-29 02:28:00,
2013-08-28 21:30:00,71.1,68.3,28.85,SE,135,2.3,2.3,91,0.00,CLR,,0.00,WeatherDisplay:10.37,2013-08-29 02:30:00,
2013-08-28 21:31:00,71.1,68.3,28.85,South,180,2.3,2.3,91,0.00,CLR,,0.00,WeatherDisplay:10.37,2013-08-29 02:31:00,
2013-08-28 21:32:00,71.1,68.3,28.85,South,180,2.3,2.3,91,0.00,CLR,,0.00,WeatherDisplay:10.37,2013-08-29 02:32:00,
2013-08-28 21:33:00,71.1,68.3,28.85,South,180,2.3,2.3,91,0.00,CLR,,0.00,WeatherDisplay:10.37,2013-08-29 02:33:00,
2013-08-28 21:34:00,71.1,68.3,28.85,South,180,1.2,0.0,91,0.00,CLR,,0.00,WeatherDisplay:10.37,2013-08-29 02:34:00,
2013-08-28 21:35:00,71.1,68.3,28.85,South,180,0.0,0.0,91,0.00,CLR,,0.00,WeatherDisplay:10.37,2013-08-29 02:35:00,
2013-08-28 21:36:00,71.1,68.3,28.85,South,180,0.0,0.0,91,0.00,CLR,,0.00,WeatherDisplay:10.37,2013-08-29 02:36:00,
2013-08-28 21:37:00,71.1,68.3,28.85,South,180,0.0,0.0,91,0.00,CLR,,0.00,WeatherDisplay:10.37,2013-08-29 02:37:00,
2013-08-28 21:38:00,71.1,68.3,28.85,South,180,2.2,0.0,91,0.00,CLR,,0.00,WeatherDisplay:10.37,2013-08-29 02:38:00,
2013-08-28 21:40:00,71.2,68.8,28.82,South,180,2.3,2.3,92,0.00,CLR,,0.00,WeatherDisplay:10.37,2013-08-29 02:40:00,
2013-08-28 21:41:00,71.2,68.8,28.82,South,180,2.3,2.3,92,0.00,CLR,,0.00,WeatherDisplay:10.37,2013-08-29 02:41:00,
2013-08-28 21:43:00,71.2,69.1,28.82,South,180,2.3,2.4,93,0.00,CLR,,0.00,WeatherDisplay:10.37,2013-08-29 02:43:00,
2013-08-28 21:44:00,71.2,69.1,28.82,South,180,0.0,0.0,93,0.00,CLR,,0.00,WeatherDisplay:10.37,2013-08-29 02:44:00,
2013-08-28 21:46:00,71.2,69.1,28.82,SSW,202,0.0,0.0,93,0.00,CLR,,0.00,WeatherDisplay:10.37,2013-08-29 02:46:00,
2013-08-28 21:48:00,71.1,68.9,28.82,South,180,0.0,0.0,93,0.00,CLR,,0.00,WeatherDisplay:10.37,2013-08-29 02:48:00,
2013-08-28 21:49:00,71.1,68.9,28.82,SSE,158,2.3,2.3,93,0.00,CLR,,0.00,WeatherDisplay:10.37,2013-08-29 02:49:00,
2013-08-28 21:51:00,71.1,68.9,28.82,SSE,158,2.3,2.3,93,0.00,CLR,,0.00,WeatherDisplay:10.37,2013-08-29 02:51:00,
2013-08-28 21:52:00,71.1,68.9,28.82,SE,135,2.3,2.3,93,0.00,CLR,,0.00,WeatherDisplay:10.37,2013-08-29 02:52:00,
2013-08-28 21:53:00,71.1,68.9,28.82,SE,135,2.3,0.0,93,0.00,CLR,,0.00,WeatherDisplay:10.37,2013-08-29 02:53:00,
2013-08-28 21:54:00,71.1,68.9,28.85,SE,135,1.2,0.0,93,0.00,CLR,,0.00,WeatherDisplay:10.37,2013-08-29 02:54:00,
2013-08-28 21:56:00,71.1,68.9,28.85,SE,135,2.3,2.3,93,0.00,CLR,,0.00,WeatherDisplay:10.37,2013-08-29 02:56:00,
2013-08-28 21:58:00,71.1,68.9,28.85,SE,135,0.0,0.0,93,0.00,CLR,,0.00,WeatherDisplay:10.37,2013-08-29 02:58:00,
2013-08-28 22:00:00,71.1,68.9,28.85,SE,135,0.0,0.0,93,0.00,CLR,,0.00,WeatherDisplay:10.37,2013-08-29 03:00:00,
2013-08-28 22:01:00,71.1,68.9,28.85,SE,135,0.0,0.0,93,0.00,CLR,,0.00,WeatherDisplay:10.37,2013-08-29 03:01:00,
2013-08-28 22:03:00,70.9,68.8,28.85,SE,135,0.0,0.0,93,0.00,CLR,,0.00,WeatherDisplay:10.37,2013-08-29 03:03:00,
2013-08-28 22:04:00,70.9,68.8,28.85,SE,135,0.0,0.0,93,0.00,CLR,,0.00,WeatherDisplay:10.37,2013-08-29 03:04:00,
2013-08-28 22:06:00,70.9,68.8,28.85,SE,135,0.0,0.0,93,0.00,CLR,,0.00,WeatherDisplay:10.37,2013-08-29 03:06:00,
2013-08-28 22:09:00,71.1,68.9,28.85,SE,135,0.0,0.0,93,0.00,CLR,,0.00,WeatherDisplay:10.37,2013-08-29 03:09:00,
2013-08-28 22:10:00,70.9,68.8,28.85,SE,135,0.0,0.0,93,0.00,CLR,,0.00,WeatherDisplay:10.37,2013-08-29 03:10:00,
2013-08-28 22:11:00,70.9,68.8,28.85,SE,135,0.0,0.0,93,0.00,CLR,,0.00,WeatherDisplay:10.37,2013-08-29 03:11:00,
2013-08-28 22:12:00,70.9,68.8,28.85,SE,135,0.0,0.0,93,0.00,CLR,,0.00,WeatherDisplay:10.37,2013-08-29 03:12:00,
2013-08-28 22:14:00,70.9,68.8,28.85,SE,135,0.0,0.0,93,0.00,CLR,,0.00,WeatherDisplay:10.37,2013-08-29 03:14:00,
2013-08-28 22:15:00,70.9,68.8,28.85,SE,135,0.0,0.0,93,0.00,CLR,,0.00,WeatherDisplay:10.37,2013-08-29 03:15:00,
2013-08-28 22:16:00,70.9,68.8,28.85,SE,135,0.0,0.0,93,0.00,CLR,,0.00,WeatherDisplay:10.37,2013-08-29 03:16:00,
2013-08-28 22:17:00,70.9,68.8,28.85,SE,135,0.0,0.0,93,0.00,CLR,,0.00,WeatherDisplay:10.37,2013-08-29 03:17:00,
2013-08-28 22:18:00,70.9,68.8,28.85,SE,135,0.0,0.0,93,0.00,CLR,,0.00,WeatherDisplay:10.37,2013-08-29 03:18:00,
2013-08-28 22:20:00,70.9,68.8,28.85,SE,135,0.0,0.0,93,0.00,CLR,,0.00,WeatherDisplay:10.37,2013-08-29 03:20:00,
2013-08-28 22:21:00,70.9,68.8,28.85,SE,135,0.0,0.0,93,0.00,CLR,,0.00,WeatherDisplay:10.37,2013-08-29 03:21:00,
2013-08-28 22:22:00,70.9,68.8,28.85,SE,135,0.0,0.0,93,0.00,CLR,,0.00,WeatherDisplay:10.37,2013-08-29 03:22:00,
2013-08-28 22:23:00,70.9,68.8,28.85,SE,135,0.0,0.0,93,0.00,CLR,,0.00,WeatherDisplay:10.37,2013-08-29 03:23:00,
2013-08-28 22:25:00,70.9,68.8,28.85,SE,135,0.0,0.0,93,0.00,CLR,,0.00,WeatherDisplay:10.37,2013-08-29 03:25:00,
2013-08-28 22:26:00,70.9,68.8,28.85,SE,135,0.0,0.0,93,0.00,CLR,,0.00,WeatherDisplay:10.37,2013-08-29 03:26:00,
2013-08-28 22:27:00,70.9,68.8,28.85,SE,135,0.0,0.0,93,0.00,CLR,,0.00,WeatherDisplay:10.37,2013-08-29 03:27:00,
2013-08-28 22:28:00,70.9,68.8,28.85,SE,135,0.0,0.0,93,0.00,CLR,,0.00,WeatherDisplay:10.37,2013-08-29 03:28:00,
2013-08-28 22:30:00,70.9,68.8,28.85,SE,135,0.0,0.0,93,0.00,CLR,,0.00,WeatherDisplay:10.37,2013-08-29 03:30:00,
2013-08-28 22:32:00,70.9,68.8,28.85,SE,135,0.0,0.0,93,0.00,CLR,,0.00,WeatherDisplay:10.37,2013-08-29 03:32:00,
2013-08-28 22:33:00,70.9,68.8,28.85,SE,135,0.0,0.0,93,0.00,CLR,,0.00,WeatherDisplay:10.37,2013-08-29 03:33:00,
2013-08-28 22:35:00,70.9,68.8,28.85,SE,135,0.0,0.0,93,0.00,CLR,,0.00,WeatherDisplay:10.37,2013-08-29 03:35:00,
2013-08-28 22:37:00,70.9,68.8,28.85,SE,135,1.2,0.0,93,0.00,CLR,,0.00,WeatherDisplay:10.37,2013-08-29 03:37:00,
2013-08-28 22:39:00,70.9,68.8,28.85,SE,135,0.0,0.0,93,0.00,CLR,,0.00,WeatherDisplay:10.37,2013-08-29 03:39:00,
2013-08-28 22:40:00,70.9,68.8,28.85,SE,135,2.0,2.0,93,0.00,CLR,,0.00,WeatherDisplay:10.37,2013-08-29 03:40:00,
2013-08-28 22:41:00,70.9,68.8,28.85,SE,135,2.3,2.3,93,0.00,CLR,,0.00,WeatherDisplay:10.37,2013-08-29 03:41:00,
2013-08-28 22:42:00,71.1,69.2,28.85,SE,135,2.6,2.9,94,0.00,CLR,,0.00,WeatherDisplay:10.37,2013-08-29 03:42:00,
2013-08-28 22:43:00,71.1,69.2,28.85,SE,135,3.5,3.5,94,0.00,CLR,,0.00,WeatherDisplay:10.37,2013-08-29 03:43:00,
2013-08-28 22:44:00,71.1,69.2,28.85,SE,135,2.3,2.3,94,0.00,CLR,,0.00,WeatherDisplay:10.37,2013-08-29 03:44:00,
2013-08-28 22:46:00,71.2,69.7,28.85,SE,135,0.0,0.0,95,0.00,CLR,,0.00,WeatherDisplay:10.37,2013-08-29 03:46:00,
2013-08-28 22:47:00,71.2,69.7,28.85,SE,135,0.0,0.0,95,0.00,CLR,,0.00,WeatherDisplay:10.37,2013-08-29 03:47:00,
2013-08-28 22:48:00,71.2,69.7,28.85,SE,135,0.0,0.0,95,0.00,CLR,,0.00,WeatherDisplay:10.37,2013-08-29 03:48:00,
2013-08-28 22:49:00,71.2,69.7,28.85,SE,135,0.0,0.0,95,0.00,CLR,,0.00,WeatherDisplay:10.37,2013-08-29 03:49:00,
2013-08-28 22:52:00,71.1,69.6,28.85,SE,135,1.2,0.0,95,0.00,CLR,,0.00,WeatherDisplay:10.37,2013-08-29 03:52:00,
2013-08-28 22:53:00,71.1,69.6,28.85,SE,135,1.6,0.0,95,0.00,CLR,,0.00,WeatherDisplay:10.37,2013-08-29 03:53:00,
2013-08-28 22:54:00,71.1,69.6,28.85,SE,135,1.2,0.0,95,0.00,CLR,,0.00,WeatherDisplay:10.37,2013-08-29 03:54:00,
2013-08-28 22:55:00,71.1,69.6,28.85,SE,135,0.0,0.0,95,0.00,CLR,,0.00,WeatherDisplay:10.37,2013-08-29 03:55:00,
2013-08-28 22:57:00,71.2,69.7,28.85,SE,135,0.0,0.0,95,0.00,CLR,,0.00,WeatherDisplay:10.37,2013-08-29 03:57:00,
2013-08-28 22:58:00,71.2,69.7,28.85,SE,135,1.2,0.0,95,0.00,CLR,,0.00,WeatherDisplay:10.37,2013-08-29 03:58:00,
2013-08-28 23:00:00,71.2,69.7,28.85,SE,135,0.0,0.0,95,0.00,CLR,,0.00,WeatherDisplay:10.37,2013-08-29 04:00:00,
2013-08-28 23:01:00,71.2,69.7,28.85,SE,135,0.0,0.0,95,0.00,CLR,,0.00,WeatherDisplay:10.37,2013-08-29 04:01:00,
2013-08-28 23:02:00,71.2,69.7,28.85,SE,135,0.0,0.0,95,0.00,CLR,,0.00,WeatherDisplay:10.37,2013-08-29 04:02:00,
2013-08-28 23:06:00,71.1,69.6,28.85,SE,135,0.0,0.0,95,0.00,CLR,,0.00,WeatherDisplay:10.37,2013-08-29 04:06:00,
2013-08-28 23:07:00,71.1,69.6,28.85,SE,135,0.0,0.0,95,0.00,CLR,,0.00,WeatherDisplay:10.37,2013-08-29 04:07:00,
2013-08-28 23:11:00,71.1,69.6,28.85,SE,135,1.2,0.0,95,0.00,CLR,,0.00,WeatherDisplay:10.37,2013-08-29 04:11:00,
2013-08-28 23:12:00,71.1,69.2,28.85,SE,135,1.4,0.0,94,0.00,CLR,,0.00,WeatherDisplay:10.37,2013-08-29 04:12:00,
2013-08-28 23:16:00,71.1,69.2,28.85,SE,135,0.0,0.0,94,0.00,CLR,,0.00,WeatherDisplay:10.37,2013-08-29 04:16:00,
2013-08-28 23:17:00,71.1,69.2,28.85,SE,135,0.0,0.0,94,0.00,CLR,,0.00,WeatherDisplay:10.37,2013-08-29 04:17:00,
2013-08-28 23:18:00,71.1,69.2,28.85,SE,135,0.0,0.0,94,0.00,CLR,,0.00,WeatherDisplay:10.37,2013-08-29 04:18:00,
2013-08-28 23:22:00,70.9,69.1,28.85,SE,135,0.0,0.0,94,0.00,CLR,,0.00,WeatherDisplay:10.37,2013-08-29 04:22:00,
2013-08-28 23:23:00,70.7,68.9,28.85,SE,135,0.0,0.0,94,0.00,CLR,,0.00,WeatherDisplay:10.37,2013-08-29 04:23:00,
2013-08-28 23:25:00,70.7,68.9,28.82,SE,135,0.0,0.0,94,0.00,CLR,,0.00,WeatherDisplay:10.37,2013-08-29 04:25:00,
2013-08-28 23:27:00,70.7,68.9,28.82,SE,135,0.0,0.0,94,0.00,CLR,,0.00,WeatherDisplay:10.37,2013-08-29 04:27:00,
2013-08-28 23:28:00,70.7,68.9,28.82,WNW,292,0.0,0.0,94,0.00,CLR,,0.00,WeatherDisplay:10.37,2013-08-29 04:28:00,
2013-08-28 23:32:00,70.7,68.9,28.82,West,270,0.0,0.0,94,0.00,CLR,,0.00,WeatherDisplay:10.37,2013-08-29 04:32:00,
2013-08-28 23:33:00,70.7,68.9,28.82,WNW,292,0.0,0.0,94,0.00,CLR,,0.00,WeatherDisplay:10.37,2013-08-29 04:33:00,
2013-08-28 23:37:00,70.7,68.9,28.82,West,270,0.0,0.0,94,0.00,CLR,,0.00,WeatherDisplay:10.37,2013-08-29 04:37:00,
2013-08-28 23:38:00,70.7,68.9,28.82,WSW,248,0.0,0.0,94,0.00,CLR,,0.00,WeatherDisplay:10.37,2013-08-29 04:38:00,
2013-08-28 23:42:00,70.7,68.9,28.85,WSW,248,0.0,0.0,94,0.00,CLR,,0.00,WeatherDisplay:10.37,2013-08-29 04:42:00,
2013-08-28 23:43:00,70.7,68.9,28.85,South,180,0.0,0.0,94,0.00,CLR,,0.00,WeatherDisplay:10.37,2013-08-29 04:43:00,
2013-08-28 23:47:00,70.7,68.9,28.85,WNW,292,0.0,0.0,94,0.00,CLR,,0.00,WeatherDisplay:10.37,2013-08-29 04:47:00,
2013-08-28 23:48:00,70.7,68.9,28.85,WNW,292,0.0,0.0,94,0.00,CLR,,0.00,WeatherDisplay:10.37,2013-08-29 04:48:00,
2013-08-28 23:49:00,70.7,68.9,28.85,WNW,292,0.0,0.0,94,0.00,CLR,,0.00,WeatherDisplay:10.37,2013-08-29 04:49:00,
2013-08-28 23:52:00,70.5,68.7,28.85,NW,315,0.0,0.0,94,0.00,CLR,,0.00,WeatherDisplay:10.37,2013-08-29 04:52:00,
2013-08-28 23:54:00,70.3,68.2,28.85,NW,315,0.0,0.0,93,0.00,CLR,,0.00,WeatherDisplay:10.37,2013-08-29 04:54:00,
2013-08-28 23:56:00,70.3,68.2,28.85,NW,315,0.0,0.0,93,0.00,CLR,,0.00,WeatherDisplay:10.37,2013-08-29 04:56:00,
2013-08-28 23:57:00,70.3,68.5,28.85,NW,315,0.0,0.0,94,0.00,CLR,,0.00,WeatherDisplay:10.37,2013-08-29 04:57:00,
2013-08-28 23:58:00,70.2,68.4,28.85,NW,315,0.0,0.0,94,0.00,CLR,,0.00,WeatherDisplay:10.37,2013-08-29 04:58:00,